GFSNW_850_spd_003.txt.gz
Wind_Speed
5 7 8 12 16 19 17 10 5 12 13 10 7 5 6 5 9 4 3 3 4 5 4 3 3 4 5 3 5 4 6 2 2 5 3 3 4 4 3 2 2 2 3 6
6 7 8 13 16 18 10 6 7 11 15 4 3 5 6 4 7 3 4 3 1 3 5 3 6 5 5 4 5 7 6 1 3 5 6 4 4 2 1 2 1 8 5 4
7 7 8 12 15 15 8 6 3 6 9 5 9 9 9 7 4 5 4 6 7 8 5 3 7 7 4 2 5 4 3 1 3 5 8 5 6 7 7 8 6 9 10 14
6 7 7 9 12 13 8 2 2 5 7 7 9 10 10 11 6 3 7 4 4 7 4 6 4 6 7 3 2 1 3 2 5 9 11 9 10 12 12 13 13 11 13 15
6 6 6 7 9 11 4 4 4 3 3 8 10 5 10 13 6 8 7 7 7 5 6 2 6 4 2 2 4 1 2 1 4 4 6 7 12 14 16 12 8 13 12 14
7 6 6 6 7 7 3 4 9 6 3 9 8 7 10 10 11 2 4 12 8 10 9 10 9 8 5 4 2 2 2 1 3 4 10 11 6 3 3 5 8 7 10 10
8 7 6 6 6 6 5 7 6 5 4 8 8 8 10 12 7 9 12 9 9 7 10 12 11 11 7 4 4 2 4 1 2 3 6 2 5 7 13 9 9 10 8 9
10 9 8 7 7 7 6 9 5 4 3 7 7 11 15 12 13 15 13 6 8 11 3 2 2 2 3 2 5 4 1 3 2 2 5 14 12 4 5 7 12 12 6 10
12 10 9 9 9 8 8 7 6 3 13 5 12 13 16 11 8 8 5 7 7 4 3 2 2 2 1 5 6 5 4 2 3 3 3 4 3 2 4 6 9 8 6 12
13 12 10 10 10 9 10 8 7 5 6 6 12 9 11 8 11 6 8 8 4 3 2 1 2 3 2 3 3 4 2 2 5 6 5 8 8 3 5 4 3 7 11 7
13 12 11 11 11 10 10 9 8 6 5 8 7 8 10 8 11 5 12 7 3 3 2 3 3 1 3 3 2 4 6 6 4 3 4 6 3 4 2 10 15 6 6 8
14 13 12 11 11 11 10 4 8 7 6 7 11 11 12 11 7 8 14 2 8 9 3 3 2 2 0 1 3 4 4 6 4 8 6 10 8 10 14 9 7 7 8 12
14 13 12 11 11 12 12 9 9 7 5 5 7 5 11 11 12 10 7 5 6 8 4 7 3 3 5 5 6 7 7 14 6 7 7 17 11 17 2 2 5 8 11 11
14 13 12 12 11 11 11 12 12 9 5 5 5 9 11 14 13 11 8 9 12 10 6 4 3 3 11 5 7 7 10 10 10 14 19 19 17 3 2 9 11 8 9 11
14 13 13 12 11 11 11 11 13 14 5 4 4 8 13 16 15 11 10 10 11 7 5 3 3 4 4 3 2 8 15 14 10 11 10 5 10 13 15 14 9 7 8 11
14 13 12 13 12 11 8 5 11 14 10 3 3 5 8 14 14 10 10 11 9 10 6 5 6 9 7 5 4 8 9 11 12 11 4 5 9 12 10 8 5 6 8 11
16 12 11 13 15 14 10 4 7 18 12 4 3 4 4 13 9 8 10 9 8 9 5 7 6 9 9 4 7 11 11 11 7 4 3 7 6 7 4 4 5 7 12 16
19 15 13 12 14 15 13 7 6 13 9 5 3 2 3 11 6 6 8 6 6 7 6 3 4 6 4 4 12 16 13 9 6 2 6 10 4 3 3 5 8 13 16 20
24 17 14 13 15 12 18 14 7 9 6 4 5 6 4 9 5 5 5 5 3 2 4 4 5 4 6 9 13 11 9 8 6 5 6 5 3 3 5 8 12 16 20 20
26 24 15 10 10 11 13 10 5 6 7 6 6 7 4 9 7 4 5 4 3 3 3 4 3 3 13 7 6 8 7 7 7 9 7 5 4 6 9 12 14 17 19 20
24 14 8 11 25 17 13 7 7 6 3 7 8 12 5 6 4 4 5 3 3 3 3 3 3 3 14 15 11 8 7 8 8 5 4 2 4 8 12 14 15 16 18 21
10 8 14 19 4 5 5 3 4 4 5 6 7 5 6 7 6 5 5 3 2 3 9 2 3 3 9 12 13 12 10 10 7 4 2 5 8 11 13 15 17 18 23 26
17 5 3 2 1 2 5 8 3 4 8 9 7 4 5 5 4 4 3 5 3 0 3 3 3 11 11 13 14 12 11 9 6 3 6 10 14 17 19 20 21 24 25 25
2 3 3 2 2 3 2 3 3 4 6 15 16 6 3 4 3 3 3 2 2 4 3 4 3 9 12 11 10 11 9 6 6 10 15 20 21 21 19 19 23 25 25 26
2 2 3 3 3 5 5 6 6 8 14 10 8 6 3 3 2 1 3 3 3 3 1 3 6 10 10 10 10 9 9 8 12 14 19 23 22 20 21 23 25 24 25 27
2 3 3 4 3 2 4 6 7 6 9 8 6 2 2 2 1 3 3 3 4 2 3 4 9 8 7 7 7 10 10 15 22 23 21 20 19 20 24 25 24 24 24 28
3 2 5 5 4 4 3 4 4 7 7 2 2 2 2 3 2 2 1 2 2 5 7 7 6 5 2 6 11 15 18 23 20 18 17 19 20 23 24 24 22 18 26 29

GFSNW_850_spd_006.txt.gz
Wind_Speed
4 3 9 12 17 23 21 13 6 12 14 8 12 8 3 3 8 2 3 5 3 3 4 2 4 8 8 5 5 4 4 2 2 8 5 3 3 5 3 0 2 0 1 5
6 4 10 14 20 25 18 12 6 16 16 5 5 4 6 5 8 7 4 2 1 2 5 3 6 8 5 5 7 4 5 1 2 8 5 4 2 4 1 6 2 4 2 3
7 5 9 16 21 22 13 8 3 7 10 11 11 7 7 5 2 4 2 5 4 5 5 4 6 9 4 5 7 2 4 2 2 2 5 6 7 8 8 8 4 5 7 14
6 6 8 14 18 18 10 5 6 10 6 8 6 11 10 11 6 5 7 5 5 6 2 6 5 11 8 4 2 1 3 1 5 7 8 7 9 11 11 12 11 8 10 13
7 6 6 9 14 15 11 4 2 6 4 14 9 5 7 11 8 9 8 5 7 7 6 3 6 6 4 3 3 2 4 2 3 2 3 9 12 14 14 15 14 9 12 13
6 6 6 7 10 13 6 4 3 4 1 5 6 6 9 10 10 2 7 7 8 11 13 14 13 12 10 7 4 4 2 1 2 2 9 9 2 3 3 5 7 9 5 9
7 6 6 6 7 8 4 6 4 4 1 5 9 10 9 10 10 6 10 9 10 11 16 15 14 14 10 7 6 4 5 2 2 2 5 2 4 13 11 9 7 7 9 6
8 6 6 6 5 5 5 7 5 3 2 9 8 10 9 13 8 12 15 11 13 14 6 3 2 2 4 3 5 4 4 3 2 0 3 9 10 5 5 5 10 11 5 8
10 7 6 6 6 5 5 6 7 3 8 3 9 11 15 8 8 8 6 8 8 5 3 2 3 3 2 6 6 7 4 5 1 2 2 3 1 7 6 9 8 8 9 11
11 9 7 6 7 7 6 5 7 5 4 4 5 8 10 12 10 5 10 7 4 1 2 2 2 3 2 5 5 4 3 2 4 4 4 6 9 4 4 3 2 8 4 10
12 11 9 8 7 7 7 5 4 6 4 4 4 7 12 8 12 5 12 5 2 3 3 3 3 2 4 1 4 6 7 6 4 4 4 6 2 1 2 7 14 5 4 6
13 11 10 9 9 8 5 1 3 5 5 7 11 11 11 9 5 10 17 4 9 8 3 2 1 2 2 2 3 7 4 6 4 9 5 10 4 7 11 11 9 3 8 7
13 12 11 10 9 9 9 6 6 4 5 4 5 4 10 11 11 12 7 6 7 9 5 7 3 3 4 4 4 3 4 10 3 4 8 12 10 13 6 3 1 5 5 8
13 12 11 11 10 9 9 6 8 6 4 4 4 6 7 12 11 11 8 8 11 11 8 5 3 3 12 5 6 4 6 5 6 7 14 15 4 5 6 3 7 7 5 7
13 11 11 11 10 9 9 8 8 10 3 4 1 5 10 11 10 7 9 11 13 10 5 3 4 5 2 4 1 4 9 9 7 8 8 3 2 3 4 6 5 5 4 6
12 11 10 10 10 9 6 2 6 10 8 2 2 3 2 9 10 9 9 11 11 10 7 5 5 8 7 2 3 10 17 12 8 12 1 3 3 5 3 2 1 1 2 7
12 10 9 10 11 12 7 4 5 11 10 3 1 3 3 9 7 8 8 10 8 8 5 6 4 4 9 3 5 10 12 12 11 1 4 3 4 3 5 3 1 3 5 10
14 11 9 8 11 12 8 6 2 9 7 5 2 2 2 10 5 3 5 5 5 4 4 4 4 5 6 4 11 14 17 18 8 6 3 5 2 6 3 2 2 6 9 12
18 13 10 8 7 7 12 9 3 9 6 3 5 6 4 9 5 4 4 4 1 2 3 5 4 3 6 8 11 13 17 9 10 7 6 7 5 3 1 2 5 8 11 14
20 16 8 6 7 10 10 7 3 4 6 6 6 7 3 8 6 3 5 3 2 2 2 3 2 5 18 17 10 7 11 10 8 10 11 7 4 2 3 5 7 9 12 19
24 12 8 8 21 14 9 6 5 6 3 7 9 15 6 7 4 3 6 3 3 3 3 4 3 3 9 22 16 8 9 8 8 9 9 6 3 2 5 7 10 16 17 18
13 8 10 10 5 3 4 4 3 4 5 6 8 6 8 7 5 5 6 3 2 5 9 2 3 3 6 15 13 9 10 12 11 9 7 3 1 4 9 15 18 19 19 21
12 3 3 2 1 2 2 4 2 2 3 5 5 4 6 5 4 5 2 6 5 2 3 3 1 9 10 13 14 12 13 14 12 6 2 2 7 13 17 20 19 18 20 24
3 2 3 2 2 2 2 2 3 3 1 10 14 6 4 4 3 4 4 1 2 3 3 3 4 9 11 13 13 12 9 9 5 2 7 12 18 22 21 19 18 20 24 24
3 3 2 2 2 2 3 4 4 5 7 6 7 6 4 2 3 0 3 4 3 2 1 2 12 12 11 12 11 11 8 4 5 8 15 21 22 21 21 19 20 23 23 24
2 2 2 3 2 3 4 6 8 5 8 6 5 2 1 2 2 2 1 2 0 2 3 8 9 9 6 7 7 5 5 9 12 18 21 19 18 19 20 22 24 23 21 20
2 2 4 4 4 3 2 4 4 4 4 2 2 2 4 1 0 1 2 2 1 5 7 8 9 8 5 2 4 10 13 15 19 20 19 20 20 21 23 24 21 16 18 20

GFSNW_850_spd_009.txt.gz
Wind_Speed
5 5 11 14 18 23 22 13 0 13 13 4 4 3 3 4 3 4 4 5 6 4 5 6 6 4 5 9 9 3 3 4 3 3 2 2 1 4 5 4 3 1 4 4
5 5 11 14 20 27 24 7 4 13 16 3 3 7 2 4 6 3 1 5 6 5 4 5 9 5 7 10 5 1 3 2 3 4 4 5 2 4 5 6 3 3 4 5
6 6 10 16 24 29 20 3 2 4 10 10 5 4 3 3 7 3 6 5 3 5 4 5 4 4 3 6 4 3 3 3 5 5 2 1 2 4 2 6 3 4 6 6
7 6 9 16 24 27 13 5 4 11 4 5 5 5 8 6 2 1 4 1 4 5 3 5 5 5 4 2 1 2 3 3 4 4 5 4 3 4 5 5 6 6 8 7
8 7 9 14 20 21 13 5 3 14 10 18 3 4 6 9 8 6 4 4 5 8 5 1 5 8 5 4 5 3 4 1 2 2 6 8 4 7 7 7 7 6 3 4
8 8 8 11 16 17 10 4 1 4 3 5 3 3 2 1 9 3 5 8 12 14 8 22 19 21 18 11 4 2 3 4 3 2 4 5 4 4 3 1 1 1 2 1
8 8 8 9 12 12 5 5 2 4 3 2 4 6 5 7 7 6 14 21 10 12 20 20 18 22 19 15 11 7 4 3 3 2 3 2 4 4 1 5 5 6 9 11
9 8 8 8 9 10 7 8 5 4 1 3 3 5 4 18 27 16 20 11 20 19 7 5 4 5 6 5 6 5 5 4 3 3 1 6 6 2 3 4 4 7 7 9
10 9 8 8 8 8 7 10 7 5 8 4 5 4 22 6 4 5 7 15 12 5 5 4 4 4 6 4 3 12 6 6 4 2 4 6 6 4 7 4 3 5 9 7
11 9 8 8 8 7 7 8 8 5 4 6 4 3 7 11 9 5 6 4 3 3 3 2 3 3 2 5 7 3 3 3 5 3 2 7 8 5 6 4 6 4 5 3
12 10 9 8 7 7 8 8 7 6 4 4 6 7 10 16 16 5 11 4 1 3 3 3 3 3 4 2 6 6 7 6 4 3 2 7 11 6 7 5 6 9 7 5
11 10 9 8 8 7 7 8 7 6 4 4 6 7 8 15 13 16 21 6 7 7 4 1 3 1 0 2 3 4 2 7 6 9 7 9 16 12 14 11 4 9 5 2
12 10 9 9 8 8 7 7 7 7 5 5 6 6 6 7 11 16 10 7 8 9 6 6 3 3 3 4 5 1 3 14 3 4 7 10 11 9 10 8 11 10 6 2
13 11 10 9 8 8 8 8 7 6 5 5 2 5 8 9 12 16 11 11 10 17 10 5 3 3 12 4 4 4 6 3 1 3 3 2 8 11 15 12 6 6 4 3
13 12 11 10 9 9 7 5 6 7 3 4 2 5 8 7 10 11 11 11 16 13 5 3 4 5 2 0 2 3 7 5 3 5 5 5 10 11 9 7 5 4 5 6
12 11 10 10 9 9 8 3 6 8 8 4 1 2 1 6 10 8 8 11 10 8 6 5 5 5 7 3 3 7 19 21 19 5 8 8 13 9 6 5 9 10 6 2
11 10 9 9 10 12 8 4 4 11 10 4 3 1 5 7 8 9 9 9 8 7 4 6 4 4 9 3 4 9 13 12 12 10 13 10 9 5 9 10 6 3 5 0
12 9 7 7 9 11 9 5 3 11 8 4 3 2 1 9 5 5 4 4 5 1 2 5 4 3 2 3 10 18 23 22 15 16 11 9 9 11 13 7 7 4 1 5
11 9 5 4 5 6 7 6 2 9 5 4 4 5 4 9 4 4 4 2 1 1 1 5 3 2 5 7 13 15 15 19 19 16 9 13 16 14 12 8 4 2 5 10
15 11 5 3 6 5 6 3 2 4 6 6 5 7 2 8 5 3 5 1 2 2 3 2 2 4 19 16 12 7 10 14 24 20 16 17 15 12 6 3 3 7 11 15
18 8 6 9 12 8 6 4 3 3 2 6 8 17 6 9 4 3 5 3 1 2 4 5 3 4 7 12 20 9 13 13 11 13 17 16 14 10 5 5 8 12 16 17
13 8 12 11 5 4 3 3 0 2 3 1 3 3 6 7 5 5 7 3 2 5 9 2 3 3 4 10 15 14 13 16 16 16 16 12 6 3 4 8 13 15 15 16
11 4 4 3 2 2 3 5 1 1 3 1 1 3 4 5 4 4 3 6 5 8 3 3 3 4 14 19 20 21 19 20 16 11 7 4 1 5 11 15 15 14 15 16
4 3 3 2 2 2 1 1 0 1 3 2 4 4 3 3 2 3 4 1 3 3 3 4 1 12 16 16 13 16 15 9 9 4 1 4 11 15 15 14 14 15 17 18
4 3 3 2 3 3 2 1 2 2 4 6 4 4 3 2 2 1 3 1 2 1 1 2 7 10 12 13 10 11 11 7 4 3 6 13 15 14 15 14 15 17 20 20
3 3 4 5 3 2 3 6 6 5 5 5 4 2 2 2 1 1 0 3 1 2 2 9 9 8 6 6 6 5 2 3 7 10 14 15 14 15 17 18 18 17 16 15
3 2 4 4 4 4 4 4 4 4 1 1 2 3 1 0 1 1 2 2 2 6 8 11 9 8 8 5 2 3 8 10 12 14 16 17 17 17 18 18 17 17 17 18

GFSNW_850_spd_012.txt.gz
Wind_Speed
13 14 19 24 26 26 24 16 2 14 12 3 1 2 4 2 3 6 5 3 3 5 4 5 3 3 3 9 3 3 2 5 3 1 3 1 2 3 4 4 2 2 4 4
13 14 19 24 27 29 27 15 5 12 15 3 2 5 4 2 2 1 2 2 4 3 4 6 3 4 4 9 4 2 3 2 3 6 6 5 4 2 5 6 3 3 5 5
13 14 19 23 29 31 25 9 2 4 8 3 6 2 2 3 6 3 5 4 6 5 4 5 4 3 3 5 4 3 2 3 5 6 4 3 2 2 3 5 3 3 6 5
13 13 17 23 30 32 21 6 4 10 4 4 3 4 3 3 2 2 5 4 3 5 3 3 4 3 2 4 2 2 3 3 1 2 4 1 1 1 2 5 4 5 6 7
14 13 14 20 28 31 17 4 4 10 9 16 5 5 6 8 3 4 0 3 4 6 4 5 7 7 3 4 2 3 4 0 2 1 5 6 3 5 6 5 4 5 2 3
14 13 13 18 25 27 10 7 5 11 0 6 4 3 6 8 9 1 3 16 8 10 3 17 19 14 11 8 5 2 3 4 3 3 4 5 5 5 3 2 2 3 5 5
15 14 13 16 22 25 9 5 3 5 1 4 6 3 3 6 4 8 9 15 7 12 24 22 21 24 22 20 12 5 4 4 3 2 3 1 5 4 5 7 3 8 10 6
15 14 14 15 19 19 14 9 4 4 1 1 1 4 13 21 21 8 8 3 11 24 7 5 5 5 6 4 6 7 5 5 3 3 3 5 4 5 5 6 4 6 10 10
14 14 14 15 16 16 11 9 7 5 8 3 1 7 19 7 4 5 7 24 12 7 6 4 4 4 4 2 2 8 6 6 4 3 4 6 5 3 10 7 4 14 14 14
14 13 13 13 13 13 11 11 10 6 5 4 3 4 8 13 7 4 3 4 4 4 2 3 3 4 5 5 7 4 3 3 5 3 2 8 7 6 7 5 7 19 17 15
13 13 13 12 12 12 12 13 11 8 5 5 4 10 12 14 12 5 10 5 2 4 4 3 4 3 5 3 4 6 7 6 4 3 2 8 14 7 7 6 14 17 15 14
13 12 12 12 12 12 13 14 11 8 4 6 10 11 13 12 12 15 18 7 6 8 4 2 3 1 1 2 3 3 2 7 6 10 7 6 22 11 18 13 16 18 19 15
13 12 11 11 11 11 10 11 11 8 6 7 6 8 10 10 11 11 9 5 9 9 6 8 3 3 4 4 5 4 4 9 3 3 6 16 15 17 12 17 15 17 16 13
13 12 11 11 11 11 10 11 10 7 6 4 3 5 7 8 11 14 13 11 16 13 11 5 3 3 10 3 3 4 6 8 5 4 4 3 7 14 16 14 13 15 10 4
13 12 11 11 10 10 10 10 9 8 4 4 4 4 3 6 9 11 6 9 17 15 6 3 3 4 3 1 2 3 7 7 4 7 8 9 10 17 19 17 16 12 9 14
12 11 11 11 11 10 10 4 7 9 7 3 1 3 3 6 7 9 8 11 13 8 6 4 5 5 6 3 4 11 20 22 22 14 14 16 13 19 17 14 14 15 17 13
12 10 10 10 11 12 6 5 7 12 10 5 3 1 3 7 10 9 8 11 6 6 5 6 5 5 7 3 5 10 17 18 20 20 16 11 22 15 17 16 20 17 15 11
11 10 9 10 11 11 8 7 8 12 7 4 4 3 1 7 5 5 6 6 8 4 5 5 5 3 3 3 14 20 23 27 25 19 22 15 18 16 21 21 17 16 12 7
11 11 10 9 8 6 7 6 6 10 3 6 3 5 4 9 5 4 4 2 1 2 3 4 5 2 5 8 12 14 17 19 22 20 16 16 21 25 19 17 14 12 6 1
11 10 4 4 8 7 8 4 3 5 4 4 5 6 2 5 4 2 3 2 1 1 3 3 2 4 19 24 22 19 14 13 15 23 20 24 26 23 18 12 7 4 2 7
14 5 3 6 12 5 3 2 1 1 2 3 2 11 4 6 3 3 4 2 0 2 4 4 3 3 6 9 11 14 14 12 18 22 24 23 23 18 12 8 2 4 9 12
13 8 13 9 3 1 3 2 1 1 2 2 1 3 3 4 3 4 5 3 2 6 6 2 3 2 11 2 13 14 17 21 24 24 24 20 14 9 6 2 7 10 10 9
16 5 4 3 2 2 4 6 1 2 3 2 1 1 3 5 6 3 2 5 5 6 2 3 1 8 13 20 25 22 18 15 14 16 14 12 8 1 5 7 7 7 9 9
4 4 3 2 2 2 1 1 1 1 1 1 0 2 2 1 2 2 3 1 1 1 1 2 2 11 13 9 9 13 17 11 13 13 9 3 5 8 7 9 10 11 11 11
5 3 3 2 3 3 2 3 2 2 1 3 4 4 2 2 2 1 2 1 1 0 2 1 3 10 7 11 13 10 7 8 4 3 6 10 12 11 11 11 11 13 13 13
4 4 3 6 4 2 3 5 4 4 4 3 2 1 2 1 1 0 1 3 2 2 0 3 3 2 2 2 3 4 4 5 7 9 11 12 13 14 14 14 13 11 12 14
3 3 8 6 7 5 4 4 4 3 1 1 1 2 2 1 1 1 2 2 2 2 0 4 5 4 2 3 2 2 7 9 11 12 13 15 15 14 14 14 12 12 14 16

GFSNW_850_spd_015.txt.gz
Wind_Speed
24 23 26 29 30 30 26 20 3 15 14 4 1 3 4 4 2 6 4 4 2 5 4 4 2 4 1 5 1 2 1 5 3 1 5 3 1 3 4 4 3 1 3 5
23 22 26 30 32 32 29 16 5 14 17 4 2 4 4 0 1 3 2 2 2 2 5 6 2 3 0 3 3 3 1 2 3 6 6 5 1 3 5 5 3 4 5 5
22 21 26 31 34 34 27 13 2 4 8 4 7 3 3 1 4 3 3 3 5 5 5 6 4 2 1 2 4 4 3 3 5 6 4 3 3 3 3 4 3 3 5 3
21 22 27 32 36 37 24 9 5 9 4 3 4 5 2 3 2 1 2 3 3 4 4 3 3 2 2 3 2 3 4 3 2 3 4 2 0 4 6 6 5 5 5 7
20 22 27 32 37 37 21 8 5 6 7 20 6 4 6 6 2 4 1 6 2 2 6 6 8 6 2 3 3 3 4 1 1 1 5 6 3 5 6 5 4 7 6 7
19 20 25 31 37 36 19 7 4 7 2 5 6 5 6 8 7 6 2 11 5 5 2 7 11 5 8 7 5 3 3 4 3 3 4 4 6 8 8 5 4 6 6 8
19 19 23 28 35 38 22 9 6 6 2 4 6 6 4 6 5 7 5 9 7 14 29 26 22 26 22 19 12 4 5 4 2 2 3 2 6 3 5 5 3 3 2 6
19 19 23 27 33 34 17 11 6 6 2 3 3 8 6 15 15 5 4 1 9 26 7 5 5 5 6 5 6 6 3 5 3 4 3 5 4 5 6 7 7 6 7 7
19 19 23 27 27 28 16 13 7 3 14 3 10 6 10 5 4 4 4 13 30 5 5 4 4 4 4 2 1 6 5 6 4 3 4 6 6 3 7 6 5 16 17 15
19 19 22 25 27 27 22 13 8 4 7 5 13 4 9 11 7 4 5 6 3 3 3 3 3 3 3 4 6 4 2 3 5 2 4 8 7 6 7 5 7 21 25 26
18 19 20 22 23 22 18 14 11 7 6 6 6 11 14 12 10 5 10 5 1 4 4 3 4 3 5 2 4 6 7 6 4 3 1 8 12 5 8 6 7 23 25 28
17 18 18 19 20 18 16 16 12 9 6 7 10 10 11 15 14 15 18 6 6 8 4 1 3 2 2 2 3 2 3 7 5 10 6 4 19 9 21 10 9 23 24 26
16 17 17 17 17 16 14 16 14 10 15 10 8 8 8 9 10 11 10 6 9 8 6 8 3 3 4 4 5 3 4 7 3 2 5 15 15 27 16 19 20 18 23 22
15 15 15 15 14 13 13 15 13 8 9 5 3 7 7 6 9 11 7 7 15 12 10 5 3 3 9 3 3 4 4 8 4 5 10 12 16 20 26 26 20 16 18 20
14 14 13 13 13 13 12 11 11 9 3 4 7 8 5 4 4 4 5 6 14 10 5 3 3 5 3 1 2 3 9 7 4 7 15 11 12 14 17 20 23 22 22 20
13 13 12 12 12 12 12 5 7 8 8 4 2 4 5 6 6 6 9 11 12 9 6 5 5 5 7 4 4 12 20 22 25 21 26 19 20 19 20 24 20 20 19 16
12 12 11 11 12 13 5 4 7 11 9 4 4 1 4 8 9 8 9 10 6 5 4 6 5 6 8 3 5 20 24 24 23 23 23 18 20 14 20 19 19 18 19 20
12 11 11 11 10 10 7 5 7 10 5 3 3 3 1 6 4 4 5 4 5 2 2 3 3 5 3 3 17 24 23 23 26 28 25 24 18 14 21 19 21 25 22 14
13 13 12 11 8 5 7 7 6 9 3 6 3 4 4 6 3 2 3 2 2 1 3 3 4 2 5 6 10 14 14 12 16 16 17 19 15 21 24 27 29 22 11 12
14 15 5 4 7 9 10 4 2 3 2 2 3 4 2 3 3 2 2 2 2 1 3 3 2 3 11 16 15 18 20 17 15 13 10 16 22 25 25 19 13 10 10 5
10 4 3 12 14 5 4 3 3 2 3 3 3 1 3 2 2 2 2 2 0 2 4 3 2 2 6 18 13 10 8 8 8 8 12 18 23 22 18 11 6 6 4 7
6 7 14 9 2 3 4 2 2 2 2 1 1 2 2 2 3 4 3 2 1 5 3 1 3 2 10 8 10 10 9 10 15 17 24 22 22 18 10 6 3 5 7 8
13 4 3 3 4 3 4 5 1 2 2 2 2 1 1 2 3 4 2 3 4 4 2 2 2 6 12 16 19 21 19 22 24 24 23 18 12 6 0 4 4 5 7 8
4 3 3 2 1 2 1 1 2 3 2 3 3 3 2 2 2 1 3 1 1 2 2 1 1 4 5 9 11 17 19 17 17 15 11 8 7 5 5 6 7 7 7 7
4 4 3 2 3 3 2 3 4 3 3 4 4 4 2 2 2 2 2 1 2 1 0 1 4 7 8 8 9 12 11 8 6 4 5 6 6 6 5 6 7 8 9 10
4 4 4 7 5 3 3 5 4 4 5 5 3 2 2 1 1 1 2 2 0 1 1 5 5 5 5 6 7 6 3 5 6 8 9 8 10 11 11 10 10 10 11 11
3 3 9 7 10 6 5 6 5 3 2 1 2 3 3 2 1 0 2 1 1 3 4 5 4 3 5 6 5 5 8 9 9 9 11 12 12 12 12 13 12 12 13 15

GFSNW_850_spd_021.txt.gz
Wind_Speed
42 41 39 35 32 32 32 19 3 23 22 5 2 4 5 3 3 4 2 4 4 5 3 3 3 6 1 2 1 4 1 4 3 1 1 1 1 3 4 3 4 1 0 5
43 42 39 36 34 35 37 14 6 20 23 4 1 2 3 3 0 1 3 3 3 2 4 4 2 3 2 2 3 5 5 1 3 2 2 1 2 3 4 5 2 5 4 4
44 42 40 37 35 38 35 16 3 5 8 6 8 5 4 3 2 1 4 5 4 4 3 4 4 3 1 1 3 4 3 3 4 6 3 1 4 4 5 3 3 4 6 5
45 42 41 38 38 40 34 10 4 7 4 2 5 4 6 5 3 2 2 4 2 5 4 2 3 2 2 2 5 3 2 4 2 1 1 2 2 4 9 8 4 6 3 8
43 41 40 38 41 43 28 9 6 5 4 18 6 3 6 7 3 1 1 6 3 2 5 6 8 6 4 4 2 2 2 4 2 4 0 2 3 6 8 8 4 11 6 15
40 39 38 39 43 46 18 9 11 13 2 4 5 6 6 7 8 3 4 8 5 4 2 3 8 7 11 7 5 3 2 5 3 3 3 2 5 10 12 6 6 9 11 10
37 38 36 39 45 47 22 16 15 7 2 3 6 8 4 7 6 7 4 7 5 7 26 27 22 24 21 17 12 4 4 4 2 1 2 2 4 2 3 12 8 14 6 4
35 34 34 39 45 44 21 18 14 6 3 5 4 7 5 14 10 5 4 3 9 27 6 4 4 4 5 5 7 6 3 4 3 3 3 6 5 4 6 7 6 11 15 7
31 31 34 39 46 44 19 17 13 6 13 7 12 7 9 5 4 3 4 9 29 5 4 3 4 3 3 1 1 3 5 5 3 3 3 5 5 1 4 4 4 2 11 8
28 29 34 41 45 44 20 14 10 6 5 6 14 6 9 9 6 4 7 10 5 1 2 3 3 3 1 3 5 3 2 2 3 2 3 7 6 1 4 2 5 3 10 14
26 29 34 39 43 43 25 15 9 7 4 13 9 10 14 11 11 5 11 6 2 3 3 3 3 3 4 2 3 5 5 6 3 3 1 6 6 5 4 4 5 7 12 17
23 28 33 36 41 41 28 17 5 6 5 8 11 10 12 10 13 15 24 8 7 9 4 1 3 2 1 2 3 1 3 4 3 8 5 4 12 10 10 12 10 9 13 17
21 25 31 36 42 39 22 17 11 8 12 11 9 9 9 10 10 13 10 6 10 9 7 8 2 3 4 4 5 2 3 6 3 1 3 11 19 20 25 27 27 26 24 20
21 25 31 35 36 31 24 14 14 7 8 6 4 8 7 7 11 10 7 9 16 15 9 5 3 3 7 3 2 3 3 7 4 4 12 15 14 16 14 14 17 21 23 22
23 26 30 34 35 33 28 20 17 12 4 6 8 11 8 6 8 7 7 11 17 10 5 3 2 6 5 2 1 3 9 6 4 5 18 9 15 17 20 20 18 15 17 19
22 25 27 27 28 28 24 10 10 11 11 7 3 5 6 9 8 11 15 12 8 5 5 4 5 5 4 3 3 9 8 13 17 11 11 21 27 25 20 17 17 16 13 10
21 25 27 27 26 23 14 8 13 12 9 5 4 2 4 7 8 7 5 6 4 3 4 3 4 3 6 2 3 11 17 16 17 13 14 13 9 9 15 14 11 9 4 9
20 19 20 18 16 18 16 16 14 13 7 5 4 1 3 3 2 2 2 3 4 4 4 3 4 4 2 2 7 18 20 19 3 18 15 10 10 9 4 2 7 15 23 22
20 19 18 18 13 6 12 14 11 8 5 6 3 4 3 1 3 3 3 3 3 2 2 2 4 1 1 4 11 15 17 14 17 12 7 5 9 14 14 15 22 25 23 21
18 16 5 5 9 20 14 5 3 4 6 5 4 2 2 2 2 3 2 4 2 2 1 3 2 2 6 9 9 11 13 14 7 5 11 15 22 23 23 24 24 21 17 13
7 5 6 16 13 4 5 5 6 5 4 5 3 3 3 2 2 2 2 2 1 3 1 2 1 2 2 8 12 12 13 16 18 18 21 24 26 25 22 20 17 14 9 6
8 13 16 8 4 5 6 2 2 3 2 2 2 3 4 3 3 4 2 2 1 2 2 1 2 2 8 13 17 20 24 26 26 24 23 21 20 16 14 11 7 4 4 8
11 4 4 3 6 5 4 5 2 2 2 2 3 2 2 2 2 5 2 3 2 5 2 2 2 13 14 17 19 19 17 18 18 15 12 9 6 4 4 5 6 7 7 9
4 4 5 3 2 3 2 2 2 3 4 8 7 5 3 2 3 1 2 1 1 3 4 3 3 11 18 14 12 13 12 10 9 9 8 8 8 7 7 7 8 9 9 10
6 6 4 4 4 6 6 7 6 5 6 6 6 5 2 2 3 2 3 2 1 1 3 3 10 16 16 15 10 8 6 4 6 7 7 6 7 7 6 7 7 8 9 10
5 6 4 7 7 4 5 9 9 6 7 6 4 3 2 1 2 2 2 3 3 2 2 12 15 14 14 13 10 6 1 1 2 2 3 4 5 6 7 7 8 10 13 15
4 5 9 9 10 7 6 6 5 5 3 1 2 2 1 2 2 1 0 2 2 11 15 13 13 15 12 9 6 2 4 3 3 3 4 5 6 7 9 13 16 18 21 23

GFSNW_850_spd_024.txt.gz
Wind_Speed
39 45 42 41 39 35 32 19 9 21 26 13 10 12 7 5 6 6 6 4 5 11 10 7 8 9 1 5 3 5 2 1 4 6 3 2 2 5 7 4 4 1 2 3
38 45 41 42 43 42 38 21 11 21 31 10 8 6 7 4 6 8 8 7 3 3 7 4 5 5 2 3 5 6 6 4 4 5 4 5 7 8 5 4 1 6 3 2
39 40 43 45 45 42 35 22 8 10 15 10 16 13 14 9 4 4 4 4 3 6 4 1 6 7 3 3 3 3 4 3 6 7 1 1 6 11 11 10 4 4 9 9
40 42 47 48 44 44 32 17 9 16 12 12 13 16 14 15 6 4 6 4 6 7 5 5 5 5 5 4 6 3 3 5 4 2 1 3 4 7 13 16 13 7 9 11
45 42 48 48 46 48 26 16 7 11 23 19 14 13 12 18 7 7 7 7 9 7 4 7 9 9 7 4 7 5 2 3 2 3 2 3 7 10 12 15 16 14 19 19
34 42 47 48 48 54 20 18 14 24 9 12 13 11 13 14 12 1 1 10 8 5 4 5 8 7 8 6 6 6 3 5 3 2 2 3 6 15 17 12 12 14 14 16
33 44 45 48 49 52 25 18 16 12 7 11 14 13 12 13 12 8 4 6 4 6 19 21 18 18 15 11 9 3 5 5 1 0 1 3 1 1 3 12 16 15 18 16
40 41 44 46 47 42 27 21 17 9 4 13 11 13 12 10 7 5 7 4 5 23 6 3 4 2 2 4 7 5 1 4 3 2 4 7 12 3 3 5 6 5 12 12
38 40 42 42 46 39 23 22 21 13 11 8 11 17 14 7 6 5 5 9 21 6 2 2 4 4 3 4 4 3 4 3 2 3 3 4 3 4 2 3 5 6 4 5
37 40 40 41 50 40 23 22 20 14 6 4 15 16 14 8 6 5 8 11 4 2 2 2 2 3 1 5 5 4 2 0 4 4 4 6 1 3 4 3 3 6 5 5
38 38 38 42 52 38 24 23 19 16 5 8 11 11 10 10 11 6 12 7 3 2 2 2 3 2 4 3 2 4 5 6 3 3 3 5 6 6 3 4 6 7 9 8
34 35 38 44 52 36 25 19 17 14 7 6 11 13 15 17 14 12 20 1 8 9 3 1 3 3 1 1 2 3 3 4 1 6 2 3 9 7 5 6 11 14 12 12
30 34 38 45 53 36 20 17 13 13 9 8 7 5 10 12 15 15 9 6 9 8 7 7 2 3 4 4 4 3 4 5 3 2 2 8 9 12 13 12 14 15 16 16
29 33 38 45 52 36 19 16 11 12 8 6 4 8 7 8 13 14 11 12 16 16 8 4 3 3 5 3 0 3 2 8 4 5 12 10 9 8 7 10 12 14 14 13
30 34 39 43 49 38 19 13 11 11 3 5 7 11 7 8 10 8 8 15 18 11 5 2 2 5 5 2 0 3 5 1 3 4 9 6 10 10 16 14 13 12 12 11
31 34 37 40 44 32 19 4 15 11 12 5 4 4 6 10 11 13 16 14 10 5 4 4 4 3 3 4 4 4 5 5 6 7 17 15 14 7 10 8 9 8 7 6
35 37 38 38 37 34 20 7 14 17 11 4 4 3 3 9 10 8 7 7 5 4 5 4 4 3 5 3 3 6 10 11 8 8 12 1 10 5 9 8 10 12 14 13
35 35 33 31 33 26 16 12 16 13 6 4 4 2 3 4 2 4 3 3 4 6 4 4 3 4 1 3 6 9 11 12 5 13 9 4 6 9 12 11 11 17 22 23
31 31 29 28 23 11 13 17 15 10 4 5 3 5 3 2 4 4 3 3 3 2 2 2 4 2 2 3 5 8 10 9 8 7 10 12 13 13 14 17 22 24 20 17
23 21 11 6 9 24 17 4 3 3 5 5 4 2 3 2 2 3 3 3 2 2 2 4 1 2 5 3 4 5 9 10 6 6 12 15 21 21 21 20 18 17 15 11
13 5 6 19 14 5 3 4 5 4 3 5 4 3 4 3 2 2 2 2 1 3 3 2 3 3 4 5 6 8 9 8 12 14 18 21 20 17 15 13 9 4 2 4
9 16 16 6 3 5 6 3 2 3 2 2 2 4 4 4 4 4 2 2 1 2 4 2 3 3 11 11 12 16 17 19 19 18 16 13 10 7 5 5 5 7 7 8
10 6 5 7 7 6 2 4 2 2 1 2 3 3 3 3 4 5 2 3 2 4 2 1 2 14 16 17 17 15 12 12 11 10 8 6 5 4 5 6 7 7 9 9
5 5 4 3 3 3 2 2 3 3 4 9 9 5 2 2 3 1 2 1 2 3 4 3 5 19 20 15 13 13 10 11 9 7 5 5 4 5 5 6 7 8 8 10
6 6 4 4 4 5 5 6 5 6 6 6 6 5 3 3 3 2 3 3 3 2 1 3 13 23 20 15 11 8 7 5 4 4 3 3 4 4 4 5 6 8 9 12
6 8 4 6 5 4 7 11 10 6 7 6 5 2 2 2 2 3 2 2 1 2 3 12 18 23 19 14 12 9 5 3 4 4 3 2 2 2 3 5 8 12 16 19
4 5 10 10 10 7 6 7 6 6 3 2 1 2 2 2 2 2 1 1 2 9 13 17 19 21 19 15 11 6 6 6 4 3 3 2 1 3 6 10 14 17 18 20

GFSNW_850_spd_027.txt.gz
Wind_Speed
39 37 40 38 42 36 35 28 12 24 32 16 18 16 22 15 12 10 9 6 9 12 11 12 12 13 8 10 8 9 4 4 6 12 5 5 9 8 10 6 6 3 4 5
38 39 40 38 43 45 38 30 20 22 30 14 14 19 22 15 13 12 12 11 8 9 10 10 11 10 6 4 7 4 6 7 8 6 7 8 8 10 8 5 2 9 3 3
40 39 40 38 42 47 42 26 11 12 23 33 22 24 22 18 15 10 16 11 9 10 8 6 9 8 4 5 4 0 0 12 10 9 5 2 7 12 11 11 7 9 11 11
41 40 44 35 43 49 41 30 16 20 17 22 21 23 18 22 14 11 15 11 15 13 9 9 7 10 6 5 5 6 4 9 13 14 5 6 8 8 12 17 16 12 12 14
40 39 43 36 43 51 36 19 22 29 28 35 20 21 23 24 19 15 16 13 16 13 9 10 9 12 9 7 9 7 5 6 3 6 7 7 10 12 14 14 16 17 18 17
36 38 45 39 43 56 31 25 23 31 27 24 18 18 23 23 16 3 9 17 11 11 4 6 8 8 4 4 7 10 5 4 3 4 3 5 6 17 18 17 16 12 15 16
33 42 49 38 53 62 36 22 17 20 16 18 20 22 23 21 17 11 5 10 10 7 16 17 15 13 10 7 5 3 5 7 1 0 1 1 2 2 4 6 12 14 13 14
34 38 46 44 58 62 36 19 18 12 4 20 24 23 21 19 11 12 14 5 5 22 11 4 4 2 2 2 2 3 4 4 2 2 6 9 12 5 1 2 5 8 7 9
32 47 39 49 58 63 37 16 13 21 11 14 29 21 24 13 11 7 5 10 16 8 3 2 5 5 6 5 6 2 3 1 4 3 3 4 4 4 2 1 5 7 9 10
42 36 32 47 52 61 40 6 16 17 14 23 21 18 16 20 15 7 8 10 6 3 3 2 3 4 2 5 5 4 2 1 6 5 3 6 3 3 2 4 3 9 10 11
37 33 46 49 51 55 35 4 19 16 9 12 10 16 21 19 20 8 14 8 3 4 3 3 3 1 4 2 2 6 6 7 3 3 3 5 7 7 2 5 8 10 11 12
38 45 45 48 54 48 24 6 21 16 10 8 9 14 14 14 16 16 20 5 14 10 5 1 2 2 1 1 3 3 4 5 2 6 2 4 6 5 5 6 8 10 12 14
38 41 43 44 54 46 18 9 19 17 8 9 8 7 11 18 17 15 8 7 9 9 5 6 3 3 4 4 5 3 4 3 3 1 2 3 5 7 5 6 9 12 14 15
37 38 41 46 51 41 16 5 17 12 9 5 4 5 4 11 15 16 11 12 15 15 9 4 3 3 6 4 2 4 3 7 5 5 10 7 6 4 5 12 13 12 12 12
33 37 41 48 50 38 8 14 16 16 6 4 9 8 4 4 9 10 11 12 15 10 5 2 2 5 4 2 1 3 5 2 3 3 6 5 9 13 9 9 8 8 8 8
35 38 40 48 49 31 12 6 9 12 6 6 4 4 5 9 12 12 12 11 8 6 5 3 5 3 4 4 4 5 4 3 2 4 9 8 5 6 9 9 10 10 11 11
35 36 40 49 44 28 9 5 11 20 10 4 5 5 4 7 7 6 7 6 6 3 4 3 4 4 6 2 4 6 2 3 1 6 8 5 8 6 8 10 11 12 13 13
34 36 40 45 44 21 6 11 11 14 9 3 4 3 5 2 3 4 3 3 4 6 4 3 3 4 2 3 6 3 5 4 7 6 6 6 7 9 10 10 12 16 20 19
36 38 37 39 24 8 9 11 17 7 3 1 3 5 4 4 4 3 3 3 3 2 2 3 4 2 3 4 4 4 6 4 2 7 10 11 12 13 13 14 16 17 13 11
38 37 23 12 11 23 21 12 11 4 1 3 3 3 4 2 3 3 3 3 3 2 2 4 1 2 5 4 4 4 3 4 9 9 12 13 14 15 14 13 11 10 8 6
18 12 5 19 21 9 4 3 1 2 2 5 4 4 5 3 2 3 2 2 2 3 3 3 3 3 5 6 6 5 6 9 11 14 16 15 15 12 9 7 6 6 6 6
13 21 25 19 5 3 5 3 2 2 2 2 3 4 5 4 4 4 3 3 2 2 7 3 3 3 12 11 11 13 15 17 17 16 15 12 9 7 6 5 5 6 6 7
19 9 5 3 4 4 3 5 1 3 2 2 4 3 3 4 4 5 2 3 2 5 1 2 2 13 15 16 17 16 15 13 12 11 9 8 7 6 5 5 6 6 6 7
7 6 5 4 3 4 3 3 3 3 4 9 9 5 3 3 3 0 3 1 1 3 4 3 4 19 20 16 16 15 13 13 10 9 8 6 5 5 5 5 5 5 7 10
7 7 4 5 3 6 3 5 5 5 5 6 6 5 3 2 3 2 3 3 3 3 1 2 15 23 20 17 15 13 12 10 7 6 6 6 5 5 4 3 5 7 9 12
5 7 4 3 4 5 8 10 8 5 5 5 5 2 2 2 2 3 2 2 1 3 3 13 25 25 21 15 13 11 9 7 8 7 5 4 4 3 0 4 7 10 13 16
5 5 11 10 11 8 6 7 6 6 4 2 2 2 4 2 2 2 2 2 3 8 11 16 23 24 18 13 13 11 8 9 8 7 5 4 3 2 3 4 9 12 13 17

GFSNW_850_spd_030.txt.gz
Wind_Speed
39 41 41 39 39 39 32 26 8 21 36 16 17 14 23 30 23 12 11 14 14 13 11 12 12 14 13 13 9 7 6 3 5 10 0 5 8 9 11 3 6 2 1 6
45 43 42 40 43 45 40 22 19 31 36 13 13 19 25 27 24 15 15 12 13 9 11 7 10 7 6 8 4 1 1 2 5 11 6 7 8 10 10 6 3 4 3 3
48 45 43 42 45 46 38 20 9 15 33 27 21 24 21 24 31 16 16 14 13 8 11 10 8 6 3 3 2 5 5 6 9 7 9 6 12 11 11 10 3 4 8 12
48 46 44 42 46 45 39 19 13 18 12 20 20 21 20 24 23 23 21 15 16 11 8 12 7 8 7 3 2 2 2 9 11 14 16 1 10 8 8 12 11 10 10 13
47 46 44 43 45 43 44 22 15 27 11 28 23 21 27 26 23 17 17 13 13 14 10 10 10 12 8 8 7 8 5 5 4 8 9 10 12 13 12 14 13 12 15 13
44 44 46 43 42 45 25 35 26 14 19 22 20 21 22 25 19 22 22 19 14 16 6 13 13 14 13 7 9 9 7 2 2 2 6 7 6 10 16 15 14 11 11 9
41 43 43 43 42 52 27 38 18 11 13 19 24 26 24 24 23 12 15 17 14 11 19 20 17 15 10 8 4 7 4 5 2 0 2 1 8 4 5 5 7 9 9 10
37 40 43 43 40 51 44 40 18 6 8 18 26 27 24 27 27 15 14 6 14 26 15 4 4 2 3 2 2 3 2 4 2 2 4 7 11 1 2 2 3 11 10 10
35 36 36 39 36 51 48 40 21 12 8 18 41 24 26 16 7 4 6 13 17 12 3 2 4 4 6 6 6 1 2 3 3 3 2 4 0 5 3 2 2 9 9 8
33 34 39 37 43 54 49 43 28 11 7 24 37 22 19 19 17 6 12 7 6 3 3 2 2 4 3 5 6 4 2 0 4 3 2 6 2 5 1 2 3 4 6 9
32 33 34 37 50 50 45 52 35 14 8 24 35 28 24 17 24 7 14 7 4 4 2 3 2 2 4 2 7 7 6 6 3 2 2 6 6 6 1 4 5 9 8 10
32 33 36 42 50 42 49 38 17 17 25 8 17 16 17 14 12 18 21 7 14 9 3 1 3 2 2 2 2 7 4 5 3 7 4 5 6 5 3 4 4 6 9 11
35 35 38 45 45 53 62 36 25 29 20 12 11 7 12 16 10 17 7 5 12 10 6 5 2 3 3 3 3 4 5 4 2 2 3 5 5 3 1 7 9 10 11 12
39 34 34 44 50 54 58 46 27 18 14 5 5 4 5 13 12 17 10 11 11 15 13 4 3 3 7 3 2 3 0 9 6 5 7 5 10 13 10 9 8 8 10 10
34 36 46 49 46 49 46 27 16 5 3 5 8 7 2 7 12 14 10 16 18 14 5 3 2 4 4 2 1 1 8 2 3 1 9 3 11 11 9 11 11 11 10 11
49 45 43 42 42 36 20 6 5 11 10 7 3 4 5 7 9 10 11 12 11 8 5 2 5 4 3 3 3 7 10 8 6 4 4 3 10 12 12 12 11 11 11 11
39 38 39 39 39 22 5 2 10 14 10 6 4 4 3 12 14 11 8 8 5 6 5 3 5 4 5 3 2 12 7 5 5 4 2 11 8 12 13 11 13 12 13 14
35 36 35 39 38 26 3 9 17 13 8 4 3 1 5 4 5 4 3 4 4 6 5 3 3 4 1 2 11 10 6 11 8 7 10 17 17 14 13 13 13 16 16 14
36 34 35 38 31 3 8 14 13 9 8 3 2 4 3 5 4 4 3 2 3 3 2 2 5 2 2 6 10 9 6 5 11 14 14 13 14 14 14 14 13 13 12 11
41 44 25 8 8 15 10 7 5 7 4 3 1 2 3 3 4 2 3 2 2 2 1 4 2 2 6 5 7 7 5 7 12 13 12 13 15 15 13 13 12 11 10 8
26 10 5 20 17 6 5 5 4 2 1 3 1 2 5 4 3 3 1 2 1 3 3 4 3 3 6 8 7 6 7 10 10 10 15 15 15 14 12 9 8 6 5 6
14 20 26 12 7 1 5 3 1 2 2 3 1 4 5 4 4 4 2 3 1 2 7 2 3 3 13 13 11 12 14 16 19 18 18 15 13 11 10 9 7 8 6 7
30 11 6 5 6 6 2 4 2 3 1 1 3 2 4 4 5 5 3 3 2 6 1 2 2 12 15 17 18 17 16 17 17 16 14 12 12 11 8 9 10 6 4 6
8 6 5 4 3 4 3 2 1 1 2 8 8 4 3 3 3 1 4 1 2 2 3 3 4 17 20 19 18 18 15 15 14 13 11 10 10 9 8 7 7 4 5 8
8 6 4 3 3 5 2 2 4 5 5 5 3 4 4 3 4 2 4 2 3 3 1 2 13 23 22 19 17 16 19 16 13 9 10 10 9 7 7 5 4 5 7 9
7 8 4 2 4 5 9 10 9 6 6 5 5 2 3 3 2 2 1 3 1 2 3 11 23 24 21 18 16 14 14 12 11 9 10 10 10 7 4 3 5 7 10 13
5 6 13 12 11 8 5 8 9 8 4 2 2 3 4 1 1 2 3 3 2 6 11 19 25 25 21 16 17 17 15 13 11 10 9 7 6 4 3 2 6 7 9 13

GFSNW_850_spd_036.txt.gz
Wind_Speed
46 37 43 37 36 37 36 28 8 24 38 12 9 15 16 10 24 10 5 4 7 9 10 8 9 10 9 11 17 10 7 5 4 11 3 2 4 7 6 5 4 1 4 5
45 40 42 38 39 44 43 20 14 29 40 10 14 7 20 25 9 6 5 5 6 3 7 5 6 4 2 1 6 9 8 2 2 5 7 4 5 6 4 5 4 5 5 5
46 41 39 46 41 47 48 16 8 14 29 28 20 19 15 21 18 22 16 11 7 8 4 5 7 5 2 4 6 6 12 5 7 7 6 4 3 3 2 5 4 5 6 5
43 43 42 50 45 50 52 19 11 21 15 20 12 20 15 21 15 15 12 10 16 12 5 6 3 5 4 4 6 2 4 5 4 4 3 2 3 4 5 5 5 6 9 8
37 41 44 50 50 47 54 18 8 25 7 24 20 17 22 27 19 11 17 14 13 8 7 8 7 8 3 5 2 3 2 3 2 2 3 2 2 4 4 5 3 6 5 3
41 45 42 51 53 51 31 35 25 20 20 17 17 23 22 26 18 16 33 12 14 8 10 11 12 18 22 12 9 6 6 6 3 4 4 3 5 7 7 5 3 5 5 5
42 42 43 50 54 58 30 38 24 10 9 13 19 22 19 28 19 19 14 31 13 15 17 23 22 23 17 16 6 7 6 5 2 3 3 2 7 4 4 9 6 6 9 5
39 38 44 53 50 56 35 34 23 6 8 15 12 24 23 25 26 20 27 23 14 28 9 4 6 5 6 4 7 5 4 5 3 4 3 5 7 4 6 6 0 1 7 5
40 41 46 46 47 51 46 36 31 7 2 10 25 17 27 18 10 14 15 17 16 17 4 3 6 5 6 5 4 6 7 5 4 3 4 7 7 3 7 6 1 6 11 5
42 44 44 47 45 55 55 42 27 9 5 11 34 16 21 17 15 4 4 10 8 3 3 3 3 3 7 6 9 5 3 3 5 2 3 7 8 7 5 6 6 12 15 13
41 42 46 45 45 56 52 47 32 18 5 11 7 23 20 31 31 7 7 6 2 3 3 4 4 3 6 4 7 7 7 6 3 3 3 7 9 5 7 7 12 17 16 14
42 41 43 45 44 57 47 33 37 21 6 8 13 20 13 30 43 25 20 8 8 8 3 1 3 2 2 4 2 3 1 7 6 8 6 4 1 7 23 23 22 16 17 15
31 39 44 44 47 49 46 35 30 27 18 26 14 9 8 22 38 36 11 7 14 11 4 4 2 4 4 4 4 4 2 6 4 4 5 6 18 22 23 21 21 19 16 14
33 38 38 45 37 39 39 26 23 26 11 2 7 6 7 13 33 43 35 26 24 20 21 3 3 4 6 4 4 5 6 9 6 4 1 18 13 18 21 22 20 18 15 13
28 29 27 33 31 32 29 24 22 21 7 4 12 12 4 6 24 30 34 33 32 22 6 2 3 5 5 1 3 2 6 7 5 5 20 10 10 17 18 19 16 13 12 15
28 30 29 34 31 27 21 8 24 38 29 7 4 10 8 7 24 25 22 28 20 11 9 2 4 3 4 4 3 1 4 10 15 11 21 16 25 19 15 17 15 14 13 13
27 28 27 27 27 23 22 12 9 29 32 3 3 4 2 9 22 18 17 12 7 7 5 3 3 3 5 3 4 10 15 17 19 25 31 23 22 15 17 16 17 16 20 21
24 20 22 19 21 21 31 17 6 8 24 7 3 3 7 9 6 5 7 6 8 3 3 4 3 3 3 2 3 21 22 23 25 24 6 21 25 23 20 19 23 26 26 24
22 20 24 30 21 17 35 29 14 8 9 3 5 4 2 6 7 5 5 4 3 3 3 2 3 1 1 1 10 19 25 12 24 20 22 27 25 23 22 23 24 25 22 19
31 36 15 6 11 8 39 22 5 9 14 7 2 2 1 2 2 5 4 4 2 2 2 3 3 2 3 11 14 16 14 22 27 31 23 26 25 25 25 24 22 21 19 16
32 9 4 14 24 12 14 8 6 1 3 5 4 6 3 7 3 2 5 1 1 3 2 4 2 2 3 12 17 17 21 23 14 11 21 23 28 29 28 26 20 15 15 15
8 16 24 23 6 3 3 3 3 5 2 3 3 6 6 5 6 4 2 2 3 2 3 3 2 1 14 15 14 17 18 16 20 21 26 26 26 25 24 19 19 16 15 15
23 7 5 3 5 7 4 1 2 2 3 2 2 1 3 4 4 5 3 4 2 2 2 2 1 8 17 18 19 22 23 24 25 27 27 26 23 17 17 21 18 17 16 14
8 6 6 4 4 4 2 2 1 1 1 8 8 5 4 5 3 2 4 1 1 2 2 3 2 15 20 23 25 28 28 26 28 27 24 20 19 20 19 16 16 14 13 11
9 9 5 5 4 6 4 3 3 2 4 5 7 8 3 2 3 2 3 2 2 3 2 1 10 20 24 26 26 29 29 27 25 22 20 21 19 17 19 16 14 11 9 6
7 10 4 8 3 7 10 11 8 6 6 7 7 3 2 3 3 3 3 3 2 1 1 5 18 22 24 26 29 29 25 21 22 23 18 15 17 18 18 16 12 9 6 3
6 5 13 8 6 6 8 10 10 6 4 2 3 4 2 1 3 3 4 2 2 2 5 12 20 25 27 27 25 22 19 17 19 17 18 19 17 16 15 13 10 6 3 1

GFSNW_850_spd_039.txt.gz
Wind_Speed
56 58 53 42 40 36 35 29 7 23 40 15 9 12 6 9 19 14 4 3 6 5 9 8 9 10 9 16 15 10 8 6 5 10 3 4 3 5 5 4 4 1 3 6
50 60 55 44 39 45 42 24 14 29 44 13 16 8 15 14 9 7 6 5 2 4 5 6 7 8 5 9 8 10 8 2 2 7 4 2 4 5 4 4 3 6 5 6
53 54 53 43 45 50 41 16 8 15 35 34 20 20 13 21 19 17 0 3 3 2 4 5 8 7 4 7 8 15 10 4 7 8 8 4 3 4 4 6 3 4 6 6
57 58 49 39 47 54 43 19 11 16 14 24 17 19 15 22 15 17 13 5 8 3 4 4 3 3 3 2 10 3 6 5 4 3 3 4 5 5 7 6 6 6 8 7
60 45 45 43 46 51 37 19 8 18 3 27 24 17 20 24 22 8 10 17 6 14 10 8 6 6 4 6 3 3 1 3 3 3 3 4 4 7 6 6 3 6 4 6
57 58 45 50 48 54 24 38 24 20 17 20 19 27 23 23 19 25 27 14 12 6 13 18 26 15 12 13 10 6 5 6 4 4 2 3 6 7 8 6 5 6 6 8
61 49 46 50 53 57 34 40 22 7 9 14 22 20 21 23 24 20 22 37 10 7 6 5 10 14 18 12 6 6 6 5 3 3 3 2 7 3 6 5 2 5 4 6
56 47 49 53 51 50 60 21 21 5 4 16 14 22 23 19 28 21 25 21 34 27 11 2 3 5 5 4 7 4 3 6 3 5 4 4 5 4 6 6 2 3 8 7
51 50 45 49 50 50 52 42 20 13 2 9 18 22 27 17 17 11 21 24 31 14 3 3 6 5 6 4 3 3 5 6 5 3 5 7 7 4 5 5 2 5 7 8
51 44 44 46 44 41 49 44 22 13 4 5 23 13 17 26 16 9 7 26 8 16 3 3 4 3 6 7 10 6 3 3 5 2 3 7 7 5 9 6 7 17 19 19
44 43 43 42 39 41 42 45 32 15 6 7 9 22 17 22 29 12 7 10 7 2 4 4 4 3 6 4 5 7 7 7 4 3 3 6 5 6 8 6 11 24 17 15
41 41 41 41 39 44 40 26 37 21 10 8 9 14 24 25 32 30 19 6 10 13 4 2 2 2 2 4 3 2 2 7 6 8 6 3 4 6 7 24 29 21 22 21
38 39 38 37 39 36 36 32 27 20 6 16 25 11 17 22 24 29 20 7 8 11 10 5 2 3 4 4 5 4 3 5 4 4 2 2 7 13 26 22 27 23 21 23
37 36 39 37 35 36 32 38 21 30 5 4 9 3 7 19 16 32 34 26 13 16 12 4 3 3 4 3 4 5 6 9 6 2 1 5 5 14 23 23 23 24 22 20
35 35 39 37 34 33 35 25 24 29 17 3 8 15 8 8 23 30 38 27 25 17 4 2 3 5 4 3 2 2 7 7 6 6 19 9 14 21 22 25 23 21 21 20
29 34 40 35 34 37 35 11 23 26 24 3 3 8 9 9 11 22 41 40 25 15 7 3 3 5 7 4 3 3 10 10 11 7 27 12 28 26 23 24 22 19 17 17
38 38 41 44 46 41 25 8 10 33 20 1 4 5 3 5 6 10 18 18 12 5 5 4 4 5 6 3 3 4 10 11 13 20 33 20 29 17 22 21 21 20 21 20
29 35 30 27 27 25 16 6 8 29 20 3 3 4 6 7 4 4 4 6 5 7 3 4 2 3 3 1 2 8 15 21 24 25 14 26 26 28 24 22 25 26 26 26
31 30 28 22 16 15 16 14 20 19 10 7 5 3 3 3 3 1 4 5 2 3 1 1 3 2 3 1 10 14 22 8 21 18 20 29 32 30 28 28 28 29 28 25
31 28 11 8 15 17 20 5 6 4 6 4 3 4 1 4 3 4 3 5 2 3 3 5 3 3 5 6 10 19 13 19 26 31 22 29 30 31 31 28 26 25 26 24
24 12 7 20 38 24 5 1 4 3 0 4 2 3 3 4 3 3 3 4 3 5 3 3 3 3 5 9 18 18 16 20 19 14 23 24 28 32 31 28 24 23 22 20
26 14 24 10 6 6 3 1 1 3 4 1 1 3 4 2 1 2 4 3 2 2 2 3 1 1 13 17 19 20 22 19 16 17 24 26 26 28 29 28 24 21 20 20
9 6 7 7 6 3 3 4 1 2 3 4 3 3 2 2 4 4 3 4 2 0 2 2 1 4 16 17 19 19 17 19 23 25 25 25 26 25 25 24 20 21 21 19
7 5 5 2 2 3 2 2 2 3 2 6 7 4 3 5 4 2 4 2 2 3 2 3 0 9 17 19 21 24 24 24 24 25 26 28 27 24 21 21 21 18 18 17
4 5 5 4 3 7 6 4 3 6 7 6 5 5 4 3 4 3 2 2 3 2 1 2 5 16 19 21 22 24 24 25 27 28 27 25 24 25 23 18 16 16 15 14
6 10 4 6 4 7 11 13 8 9 5 5 4 3 3 4 2 3 4 3 4 3 3 3 12 19 21 22 22 24 27 27 26 24 23 26 19 15 17 19 17 15 11 10
6 5 18 9 5 8 10 12 12 8 3 2 2 5 5 2 4 3 4 3 4 9 4 6 15 21 22 22 23 24 23 22 22 25 20 17 17 18 20 20 17 13 11 7

GFSNW_850_spd_042.txt.gz
Wind_Speed
52 46 44 53 46 39 36 28 7 21 39 15 16 17 7 17 24 5 3 2 4 4 5 6 8 10 9 16 15 8 6 5 5 8 2 3 4 7 6 5 3 1 3 6
56 49 47 52 50 46 45 20 13 28 47 13 15 10 17 8 7 8 5 5 3 2 0 3 7 7 6 13 8 9 7 1 0 8 5 3 4 5 3 5 4 6 5 6
63 51 48 53 51 49 51 13 8 16 34 39 18 22 16 21 13 7 5 2 2 0 3 4 3 6 3 10 11 6 11 4 7 8 8 4 4 5 5 6 4 5 6 7
67 53 50 50 56 52 53 18 9 14 14 23 17 19 15 19 16 19 14 2 6 3 5 3 4 2 3 2 7 6 6 8 6 4 4 5 4 5 7 7 6 6 7 8
66 58 54 56 59 55 48 14 7 15 9 24 22 16 22 25 21 10 14 7 8 8 4 6 3 2 2 5 5 7 3 4 3 3 3 3 3 6 6 4 2 5 5 6
65 57 52 59 65 61 34 24 23 19 15 19 17 25 20 20 17 22 11 20 12 4 15 20 21 17 13 6 2 9 8 7 3 4 3 4 6 8 8 6 5 8 7 10
63 53 54 63 68 67 38 26 27 10 6 13 22 21 18 23 23 10 26 18 5 8 19 7 1 2 4 7 3 3 7 7 3 3 3 2 6 1 3 8 6 6 4 4
56 53 62 67 64 65 41 30 25 11 3 11 9 19 22 19 20 18 14 33 22 17 11 4 1 3 2 1 5 4 1 6 3 5 4 5 3 4 7 7 9 6 6 6
52 56 64 58 58 61 58 29 29 7 1 11 18 15 20 18 15 8 15 29 21 6 3 3 5 5 5 5 3 4 5 6 5 3 5 7 8 4 8 4 6 7 10 9
55 60 55 52 53 49 50 50 28 9 2 3 27 17 16 21 17 2 7 17 14 15 2 2 3 5 3 6 10 6 4 3 5 2 3 7 7 4 10 5 8 17 25 26
56 59 51 48 52 48 44 38 42 22 4 12 3 19 21 22 32 9 8 8 13 2 7 4 4 3 6 2 5 8 7 7 3 3 3 7 11 6 9 7 3 27 29 27
49 52 43 46 48 46 37 25 35 32 15 7 11 10 15 22 22 27 21 8 8 15 4 1 3 2 1 5 4 1 3 6 6 9 7 4 15 6 16 7 11 26 27 23
50 44 44 45 43 34 31 26 30 33 13 14 22 12 11 18 22 26 18 17 7 8 16 6 3 4 5 4 5 4 2 4 4 4 5 6 11 16 12 15 22 27 26 26
41 46 39 34 32 33 35 27 19 34 3 3 10 17 12 11 21 24 30 20 26 12 9 4 3 3 7 4 3 4 4 9 7 3 4 2 12 17 16 19 21 24 23 25
35 36 35 33 31 30 33 30 29 28 22 1 6 13 12 10 18 27 27 35 27 11 4 1 3 5 4 2 1 3 7 7 6 8 17 11 10 21 21 23 24 25 27 25
36 35 33 33 35 35 31 8 31 28 28 6 2 8 8 7 12 28 31 35 34 21 12 4 3 5 5 4 3 4 17 14 9 4 19 16 17 27 26 26 24 23 22 22
33 32 32 33 32 36 19 11 8 22 19 7 2 4 3 4 6 11 22 29 22 13 7 4 5 2 9 1 4 4 10 9 9 11 23 13 26 18 26 26 26 24 22 21
36 33 34 33 32 30 18 6 4 10 6 4 2 4 4 3 2 6 7 10 13 6 6 5 3 6 3 4 2 8 11 14 16 16 8 14 26 28 28 26 27 26 26 26
38 37 37 32 29 13 23 9 9 21 5 5 3 1 3 5 4 3 4 3 2 3 2 2 4 1 4 3 5 13 13 13 20 12 8 19 30 32 29 28 27 29 29 28
46 42 13 6 20 19 17 18 20 15 11 6 2 4 3 5 5 5 2 5 2 3 3 8 2 3 3 3 8 12 15 12 17 25 19 24 29 30 28 27 27 27 29 28
22 7 5 16 21 11 4 7 8 7 4 9 7 11 3 1 2 2 5 1 1 2 3 5 3 2 1 2 8 15 10 12 17 15 20 23 28 33 32 29 27 27 28 28
7 19 27 27 7 3 1 2 2 1 2 2 1 3 5 4 4 3 2 0 2 3 4 3 3 2 1 13 11 14 19 16 10 13 23 23 26 27 28 28 28 26 24 26
10 7 6 4 2 2 4 5 2 1 2 2 1 2 4 4 3 4 2 2 1 4 3 2 3 5 7 12 15 16 15 17 19 22 22 23 25 25 26 29 26 25 25 24
5 5 5 3 3 3 1 1 1 1 2 3 6 5 3 3 3 1 3 1 2 3 3 3 3 5 9 14 16 19 18 18 20 22 22 23 26 28 26 23 24 26 25 22
6 6 5 4 4 6 5 3 5 7 6 1 3 5 5 3 3 2 2 2 3 4 2 3 5 6 9 13 16 18 21 21 21 21 23 26 28 27 24 24 24 21 17 16
9 12 6 8 3 8 13 16 10 15 7 3 7 3 3 5 3 4 5 3 4 3 4 13 2 9 10 13 16 19 19 20 21 24 26 24 21 24 25 22 17 15 14 15
6 5 20 13 7 8 9 13 18 13 6 3 3 6 4 3 4 4 5 4 4 16 13 3 6 9 11 13 15 16 19 21 21 22 22 24 23 19 19 19 17 16 14 12

GFSNW_850_spd_045.txt.gz
Wind_Speed
49 50 50 47 39 39 41 31 9 16 37 20 15 18 12 10 20 6 4 1 4 3 4 5 6 13 11 18 17 10 6 5 5 7 0 2 3 6 6 3 4 1 1 5
50 52 54 52 46 44 45 17 18 17 44 14 14 14 15 14 11 12 5 6 5 1 1 3 6 6 6 17 9 10 8 2 2 1 1 1 3 5 4 5 3 7 4 4
54 54 59 57 51 47 48 15 8 15 38 37 20 19 23 21 19 5 11 3 2 1 2 2 2 5 3 15 8 10 13 4 6 9 7 5 4 5 7 5 4 5 7 8
54 56 63 62 54 52 51 19 8 17 12 22 22 20 17 24 13 17 14 6 10 3 5 3 3 1 1 2 7 5 5 7 6 5 5 5 6 6 11 10 7 8 8 9
52 54 67 64 58 55 44 15 9 16 13 37 24 17 19 28 25 16 15 11 10 14 6 7 2 4 2 3 1 5 2 4 5 3 4 7 6 5 8 8 4 9 7 9
53 57 70 64 59 64 34 29 27 29 18 19 19 23 19 18 18 16 14 15 5 6 14 18 17 14 12 6 5 3 3 6 4 4 0 2 4 8 10 6 5 6 9 11
53 57 72 64 61 68 37 32 27 15 8 14 21 18 18 20 26 9 19 22 14 8 17 14 9 4 3 8 7 8 5 5 1 3 2 5 3 1 2 10 6 9 7 5
51 67 72 64 61 69 35 38 28 14 7 11 16 18 22 16 21 20 15 12 11 15 4 3 3 2 3 2 2 6 4 5 3 5 4 3 2 4 7 7 13 10 13 7
40 72 70 63 60 67 40 34 29 16 6 7 17 21 25 13 12 7 14 7 19 10 2 3 4 5 3 4 3 3 5 3 4 3 5 8 5 4 7 4 12 8 13 11
61 70 64 61 58 57 48 25 34 16 2 13 20 12 18 25 11 5 7 16 7 7 2 2 3 4 6 3 6 6 3 2 7 3 3 6 6 5 11 6 8 9 17 20
64 66 58 56 58 57 51 25 33 24 3 3 5 13 20 23 30 9 9 8 7 2 5 3 3 4 6 4 2 5 7 7 4 4 2 7 11 8 10 8 5 11 19 26
60 52 50 51 56 61 48 28 22 26 10 4 5 6 13 20 39 27 28 11 10 14 4 4 3 2 0 4 8 1 4 6 5 9 7 2 26 9 23 9 7 11 23 31
48 50 49 53 56 55 45 29 26 20 18 18 15 7 12 21 30 40 14 10 11 11 16 5 3 4 5 5 6 3 4 4 4 3 6 7 18 25 14 17 16 13 25 36
55 51 43 44 43 41 37 26 16 12 6 3 9 8 14 9 23 33 38 11 21 8 14 3 2 3 8 4 4 5 4 7 5 3 4 3 17 25 23 20 16 16 25 31
46 44 42 39 35 34 26 19 11 10 25 3 6 12 12 15 15 25 33 36 19 8 4 2 3 3 3 0 1 3 7 7 6 6 12 8 15 31 27 23 22 24 29 29
39 36 34 31 29 26 25 5 12 14 20 3 4 5 14 10 12 17 27 30 30 16 7 4 6 5 5 5 5 4 22 14 11 4 9 17 16 11 25 25 26 27 29 31
33 33 30 26 26 26 16 7 8 25 15 5 2 4 5 9 13 11 20 28 18 18 9 5 5 4 5 2 4 4 12 17 16 12 9 5 13 11 21 22 24 24 25 26
31 30 30 29 26 26 8 6 22 30 11 6 2 3 3 7 5 6 10 12 15 11 10 4 3 3 1 4 3 9 9 11 12 15 15 14 19 15 24 24 25 26 27 28
31 31 32 30 24 16 13 11 20 26 7 3 2 2 2 3 3 2 1 8 3 5 3 3 8 2 6 2 5 12 14 12 14 17 10 9 16 23 25 27 27 29 28 29
33 34 16 8 17 18 13 9 16 13 6 9 3 5 2 3 4 3 3 6 3 4 3 13 3 3 1 1 3 8 10 6 12 16 10 13 17 18 27 27 26 27 30 31
27 10 8 18 22 17 6 3 2 4 3 8 7 15 3 3 2 2 2 1 1 2 2 4 3 1 2 0 6 11 13 10 13 6 3 10 15 27 25 26 25 27 30 31
11 13 30 25 9 4 4 3 3 5 5 5 4 8 6 4 2 3 2 2 2 1 1 2 1 4 9 3 7 11 12 12 8 5 4 8 18 26 26 26 27 28 28 28
27 8 4 3 2 4 4 4 3 2 2 2 3 3 4 5 5 3 2 2 1 1 2 2 2 8 10 4 8 11 10 10 13 14 15 21 23 23 23 27 27 27 29 28
6 5 5 3 3 3 1 2 1 2 4 2 5 4 3 5 3 1 3 1 0 2 3 4 5 12 6 3 5 10 14 13 15 18 18 20 22 24 24 26 26 28 27 23
4 4 4 3 4 6 6 3 0 4 9 6 3 6 5 3 4 3 2 3 4 5 4 4 18 12 3 5 8 12 14 17 19 19 21 23 25 27 26 24 21 21 24 23
6 11 5 11 5 8 11 14 10 13 8 6 6 3 4 6 3 5 7 3 5 4 5 21 19 6 3 6 10 12 14 16 18 18 20 24 24 24 25 23 23 22 15 14
6 5 23 15 5 6 10 16 20 13 6 4 3 7 6 3 4 5 5 4 5 19 24 15 9 6 6 9 13 14 16 18 19 22 21 22 23 24 23 24 19 15 13 13

GFSNW_850_spd_048.txt.gz
Wind_Speed
49 46 46 45 41 39 37 31 10 21 41 17 8 13 30 22 22 20 8 5 6 5 9 15 15 22 16 21 24 20 18 9 9 13 3 4 7 10 12 7 6 4 7 10
52 47 47 46 46 47 45 24 18 22 45 14 12 28 26 29 19 24 12 11 7 4 4 7 16 12 13 18 19 17 14 10 10 10 6 5 9 11 12 7 3 12 6 4
54 50 47 48 50 52 48 21 7 14 35 41 27 29 24 30 30 23 15 11 7 8 6 4 4 9 4 15 21 12 23 13 16 13 14 12 11 13 15 15 8 11 11 11
58 49 52 50 58 57 52 25 9 17 14 22 29 28 28 28 30 30 23 15 17 13 5 3 3 2 5 6 5 7 11 16 17 18 16 15 16 14 15 16 17 13 13 15
54 55 53 55 62 63 47 15 11 29 18 38 32 28 26 32 29 24 24 20 21 12 13 4 5 7 7 1 4 7 6 10 11 13 13 14 16 17 18 19 17 14 16 18
56 54 56 57 68 70 33 35 29 30 19 27 20 23 29 32 27 31 31 21 11 21 21 11 5 6 10 9 4 9 5 8 8 13 9 8 6 16 16 16 14 15 16 16
57 57 57 62 72 73 41 44 31 18 14 17 23 32 31 29 28 26 18 20 17 8 10 7 6 15 12 12 10 11 5 9 5 5 4 7 8 3 17 18 15 15 16 16
55 57 57 63 71 70 44 40 28 19 11 19 24 28 28 28 29 26 25 13 20 11 4 5 6 5 7 8 7 12 14 8 4 4 9 9 4 6 8 12 16 14 18 18
53 53 53 53 73 68 40 43 38 16 14 16 28 23 21 19 20 19 25 18 12 14 5 5 7 8 8 7 4 2 8 9 8 4 7 7 9 11 12 4 15 10 13 14
50 52 54 51 75 73 43 38 39 23 15 15 22 19 20 40 20 16 21 12 13 14 6 4 5 6 6 12 6 5 5 4 12 11 7 6 3 11 14 9 14 5 8 11
47 48 47 66 66 64 47 37 31 29 12 4 7 19 24 32 29 16 22 12 6 8 8 7 5 4 6 8 12 6 8 9 5 8 7 11 14 12 11 14 5 9 10 12
44 46 56 71 67 52 43 31 30 22 9 5 4 10 14 19 39 30 29 18 20 12 7 6 5 3 1 8 10 7 8 6 3 9 6 4 29 20 25 10 10 10 12 13
41 52 65 65 68 52 38 28 29 25 10 4 8 2 4 20 30 25 21 22 16 21 14 5 4 5 6 5 10 12 7 6 5 2 10 12 15 23 11 14 13 9 10 16
47 59 60 56 60 46 41 29 25 23 7 3 3 8 13 15 26 25 28 19 15 12 18 7 3 3 7 7 10 10 10 9 9 12 13 8 14 20 21 14 14 14 12 19
53 49 51 48 55 35 34 24 18 15 8 1 3 8 15 17 18 25 28 13 21 9 6 3 4 5 3 2 2 10 10 8 8 8 17 11 19 13 18 20 19 15 17 21
42 43 44 42 42 39 34 8 21 17 10 2 3 5 16 23 20 25 33 30 19 9 9 5 7 3 7 4 7 15 19 15 20 10 11 14 14 10 10 16 16 16 17 21
45 46 47 44 41 29 14 8 11 22 15 6 3 3 8 21 20 22 21 26 24 20 15 6 7 5 7 3 8 8 16 20 16 18 12 8 11 6 8 12 12 16 17 21
40 36 33 29 28 23 8 5 13 23 9 3 3 2 4 17 7 4 11 12 16 15 12 5 7 5 3 6 11 18 15 9 12 12 13 10 7 7 7 10 12 17 16 19
35 34 31 28 15 6 8 9 23 15 5 5 2 3 1 4 4 4 6 9 3 6 5 5 8 6 6 3 8 9 11 11 10 12 10 9 8 10 12 13 16 17 22 20
36 34 11 6 8 15 24 17 10 3 2 2 2 2 2 2 4 3 3 2 2 2 5 10 4 6 4 8 8 9 7 8 10 9 7 10 11 12 13 14 18 22 20 26
20 5 4 10 20 9 3 4 4 6 4 8 7 15 3 5 3 2 2 3 2 3 2 7 3 2 6 17 11 7 8 5 5 7 5 8 10 14 16 17 18 19 25 29
9 13 17 17 6 3 2 3 4 4 3 5 4 5 8 6 4 2 3 2 2 0 2 2 3 3 19 15 10 6 3 3 6 4 4 7 10 13 17 19 22 24 25 27
9 11 6 3 1 2 4 7 3 3 2 3 5 3 9 5 1 2 2 2 1 0 3 3 4 16 23 17 8 4 2 2 1 3 7 11 14 17 20 22 21 22 27 29
2 3 4 3 1 3 2 3 3 2 4 5 3 3 1 1 2 0 2 2 1 3 3 4 7 23 21 13 7 4 6 7 9 11 13 16 18 20 21 23 27 29 31 28
6 5 4 4 5 7 8 6 2 4 4 2 3 4 3 3 3 4 2 4 5 6 4 5 20 27 13 10 8 10 12 14 16 16 19 22 24 26 28 27 27 28 27 23
6 10 6 14 4 9 13 15 11 11 6 3 3 2 4 6 3 5 7 4 6 5 6 19 22 13 13 13 13 15 16 19 20 21 23 26 28 29 29 25 23 21 19 19
6 6 24 16 8 9 15 17 15 12 3 2 3 6 7 3 5 5 5 4 4 12 14 16 21 16 15 16 18 19 20 22 23 24 24 24 23 22 23 25 21 18 16 15

GFSNW_850_spd_051.txt.gz
Wind_Speed
47 44 41 41 40 39 39 33 10 18 38 16 7 16 35 43 25 38 21 18 18 23 13 18 21 24 20 15 18 21 22 11 12 17 18 20 16 19 18 10 12 8 7 12
41 42 44 42 45 46 47 21 15 23 45 12 15 24 37 38 30 24 29 20 20 12 13 11 18 16 16 15 21 19 20 12 12 15 11 10 14 16 15 17 11 12 8 7
40 43 45 49 50 51 53 19 9 13 38 40 25 32 37 37 38 27 28 19 24 20 15 12 5 19 7 19 15 27 19 17 20 15 17 15 18 17 17 15 10 12 14 17
43 43 46 51 54 57 60 24 10 17 14 22 33 31 22 33 34 36 30 18 26 24 20 16 15 12 5 6 12 5 9 22 20 23 20 17 23 23 22 22 19 17 16 18
46 48 47 51 59 59 57 14 11 31 20 35 30 26 34 36 34 28 29 24 19 20 21 17 13 11 8 7 8 14 16 16 21 21 20 18 19 18 18 20 21 20 19 20
49 52 52 54 66 65 33 25 35 32 23 27 23 24 35 40 32 38 40 28 20 17 21 4 14 7 9 5 6 9 9 13 16 17 18 20 17 17 19 20 19 17 18 17
52 58 59 58 59 67 38 42 39 18 14 16 25 32 33 36 34 31 35 38 23 27 12 5 6 10 5 5 7 10 8 14 12 8 3 16 10 15 20 22 20 17 17 17
46 59 61 61 65 68 47 43 33 22 12 20 24 29 27 34 40 25 26 38 40 23 7 7 7 3 5 6 12 16 12 10 7 8 12 13 18 10 13 15 16 17 16 16
43 60 58 65 64 65 53 41 45 31 12 16 35 19 28 20 19 19 26 36 20 13 4 7 16 8 7 8 8 21 14 14 10 7 14 19 12 14 14 13 13 14 15 12
42 48 61 59 62 61 60 48 48 25 15 25 15 15 22 34 24 15 22 26 17 20 6 8 11 13 12 12 12 8 8 7 12 13 10 8 10 14 15 13 14 9 6 8
38 52 61 59 62 59 55 48 48 29 10 9 15 14 25 31 32 16 27 19 11 9 9 9 7 7 9 13 16 14 9 7 6 9 11 14 4 11 14 16 23 7 11 12
42 50 54 55 54 59 53 34 47 37 6 2 15 6 11 18 30 34 29 16 23 13 10 7 7 5 2 11 10 15 13 9 8 8 5 10 18 19 22 23 16 11 13 13
38 46 52 47 52 56 40 34 38 32 13 5 9 9 3 17 12 23 23 28 24 28 25 7 4 4 8 7 10 10 15 11 11 12 11 14 12 20 19 11 17 14 12 13
40 44 45 49 50 59 31 35 37 28 10 4 5 6 6 4 22 13 15 19 34 15 21 7 4 5 9 7 9 11 11 9 12 16 17 24 19 13 15 17 15 12 10 12
38 40 44 61 45 41 31 26 25 21 7 3 4 3 10 10 15 21 16 18 16 20 10 5 6 9 6 4 6 11 14 13 9 8 14 12 17 15 9 13 18 15 16 16
36 57 58 50 45 44 38 12 18 15 10 3 1 4 8 14 13 20 21 26 20 20 21 11 12 16 13 4 9 14 22 21 22 16 20 12 11 12 13 9 16 15 16 16
57 55 37 41 38 33 15 5 11 19 11 2 2 3 5 14 13 12 16 20 23 14 17 8 11 12 8 5 9 9 10 9 16 17 9 14 13 6 12 11 12 14 13 14
51 44 42 38 32 22 10 7 15 20 8 3 0 3 3 14 8 5 22 19 24 15 9 8 10 10 6 6 10 21 24 25 17 12 12 12 11 8 7 7 10 12 16 19
43 38 36 28 13 8 7 15 21 10 5 5 4 2 2 13 11 11 13 16 8 7 7 9 7 7 7 7 11 13 14 8 9 5 6 7 9 9 7 8 9 11 14 17
41 26 7 6 6 13 24 8 6 3 6 3 2 4 3 5 9 4 4 2 5 6 6 14 5 5 13 22 18 14 13 11 8 8 7 8 11 9 8 8 8 11 13 16
7 5 5 13 20 8 4 6 6 5 4 6 6 13 5 3 1 2 3 2 2 4 3 6 5 2 10 26 21 15 12 9 6 7 8 6 5 7 7 7 9 12 16 20
7 13 15 13 4 4 2 2 2 4 2 4 3 5 6 1 2 2 3 3 2 3 2 2 3 5 20 24 20 17 11 7 5 7 7 7 9 5 8 11 16 20 22 24
12 5 3 1 2 1 2 4 2 1 1 2 3 1 1 3 3 1 0 2 3 5 2 3 5 16 22 21 15 12 11 9 7 6 5 3 6 8 8 14 16 20 25 26
7 4 4 4 5 6 4 4 3 6 6 8 2 1 2 4 2 1 3 2 0 3 3 5 7 23 19 15 12 12 15 15 15 16 15 16 17 20 19 19 21 23 26 26
7 7 5 6 6 9 8 9 5 7 7 7 2 3 7 4 2 4 3 4 5 7 4 5 18 20 15 14 14 16 18 20 21 21 24 25 26 28 28 26 27 28 28 28
6 10 5 14 4 9 16 14 8 8 8 2 4 2 3 4 3 5 7 4 6 4 5 14 19 16 16 17 18 20 20 22 24 26 28 29 30 31 31 29 27 24 22 22
5 6 18 10 7 10 14 17 15 15 6 3 3 5 7 3 4 4 5 4 5 10 12 13 17 19 20 21 22 23 25 26 26 27 28 28 27 26 24 25 22 20 19 19

GFSNW_850_spd_054.txt.gz
Wind_Speed
40 40 41 40 39 36 35 33 8 19 37 17 9 18 41 26 29 40 30 26 27 24 23 12 19 23 20 21 26 27 22 6 13 16 16 16 18 16 16 9 9 5 3 3
40 42 41 42 42 42 43 19 14 23 46 12 16 24 34 34 27 32 28 28 26 22 19 12 15 21 19 13 11 20 19 16 11 16 15 16 18 16 17 16 10 14 4 7
37 45 41 42 43 46 49 17 7 15 38 39 25 26 35 33 40 29 35 26 25 21 17 20 12 14 16 13 9 15 23 15 16 12 14 11 18 18 19 18 8 5 8 13
38 36 38 40 51 52 54 22 8 16 15 21 30 27 18 29 26 37 38 28 29 22 13 14 18 26 9 2 11 3 5 20 21 18 18 17 20 21 20 21 14 13 19 19
40 40 39 40 42 46 58 15 8 29 16 37 29 26 30 33 22 27 35 30 30 24 18 14 16 20 8 14 9 11 10 14 18 20 19 21 19 18 20 21 20 18 18 17
43 44 44 45 46 49 47 30 34 25 23 23 22 24 33 34 28 27 36 32 24 23 18 11 2 9 20 21 13 10 12 12 14 17 18 18 19 18 17 14 16 14 16 14
46 48 49 49 52 55 50 35 34 9 8 17 22 31 34 34 29 28 29 37 27 32 18 9 3 10 19 28 3 5 5 10 10 6 5 24 9 14 14 15 16 15 16 14
47 49 51 52 52 57 57 28 35 20 3 18 24 30 27 29 31 23 25 34 43 38 17 7 4 3 4 12 8 4 3 4 5 6 12 12 15 12 11 12 16 18 19 18
44 48 49 51 54 57 54 36 44 33 13 14 36 16 29 19 18 20 29 41 32 28 12 8 9 5 6 6 4 7 7 6 7 3 10 12 4 12 17 11 12 12 14 12
45 52 51 52 55 54 58 39 51 34 7 17 22 11 17 27 22 16 18 29 21 24 14 14 11 10 16 7 6 5 3 7 11 10 7 6 6 13 21 16 7 11 16 18
34 46 47 51 55 59 60 48 46 37 16 10 11 15 12 22 26 14 14 10 8 1 9 13 8 6 10 7 12 10 10 8 5 7 5 13 9 10 18 9 21 11 16 8
30 36 40 45 57 64 50 32 45 34 16 6 7 11 11 21 26 18 21 25 11 12 7 6 6 4 5 9 6 7 7 7 5 6 4 12 14 14 12 15 15 17 12 16
31 32 35 56 62 57 43 33 42 29 17 7 12 11 16 17 18 16 21 21 22 10 21 5 5 5 6 4 5 6 2 13 10 10 11 12 19 24 21 18 15 16 12 11
29 37 38 46 48 51 38 40 36 28 13 1 2 8 8 15 19 10 13 15 21 21 37 7 4 3 9 5 4 8 7 7 14 11 12 13 21 21 24 9 12 14 10 7
39 39 41 43 52 43 36 34 37 31 11 4 2 8 12 11 9 14 10 11 15 9 4 3 6 7 5 3 5 6 11 11 8 5 7 1 7 6 13 24 24 24 14 9
41 43 49 49 43 40 36 17 28 29 15 4 5 3 7 14 10 13 20 11 10 7 11 7 9 10 4 2 4 9 16 20 23 12 19 19 14 14 16 15 13 13 14 12
36 40 47 46 39 33 14 8 24 31 8 2 1 1 3 13 13 5 11 13 9 7 7 5 9 11 14 3 6 7 11 11 8 8 12 8 5 4 14 17 16 13 16 13
41 46 44 36 31 23 16 14 26 29 5 3 1 1 2 11 6 4 8 10 6 8 5 8 7 10 2 3 6 11 13 17 17 13 8 7 9 12 9 10 10 12 6 6
48 42 37 33 20 8 11 22 25 18 7 3 2 2 2 8 4 6 9 10 1 6 5 3 7 4 1 8 14 17 20 14 15 12 8 7 7 7 7 9 7 2 1 3
34 24 10 5 9 24 26 8 4 4 4 1 2 2 2 1 5 4 4 5 1 3 4 3 2 3 8 18 16 15 15 18 13 11 11 13 11 9 5 2 1 2 5 9
5 5 7 27 21 6 4 4 3 3 2 5 5 9 3 1 3 2 2 4 2 3 3 4 4 4 8 21 19 15 13 11 11 10 9 9 8 6 4 7 8 9 11 13
6 14 14 14 1 1 2 2 2 5 2 2 3 4 9 7 7 3 4 3 4 6 2 2 3 5 19 18 16 16 14 11 8 6 5 4 4 7 9 9 10 12 14 17
9 6 4 1 2 1 3 4 2 2 4 8 6 3 5 4 2 2 1 4 2 3 3 3 5 17 20 17 15 16 16 14 13 13 13 12 14 13 11 15 15 17 18 17
6 4 5 4 4 5 5 5 4 4 4 10 8 3 3 3 2 3 3 2 1 4 3 4 6 17 16 15 16 19 22 21 22 23 23 24 25 26 23 22 20 22 23 21
8 7 6 6 5 10 10 11 6 8 8 8 2 1 4 3 3 4 3 4 6 7 4 3 17 16 18 20 20 20 21 24 26 26 29 29 28 29 28 24 24 24 26 27
7 10 5 15 6 9 14 13 8 11 10 6 3 1 3 6 4 5 9 4 6 4 4 12 16 20 21 23 25 27 28 29 29 30 31 31 33 33 33 31 29 28 26 26
6 5 15 12 7 12 12 14 13 14 9 3 3 6 7 3 4 4 5 4 5 11 11 15 18 20 22 25 27 27 27 29 29 30 30 29 28 27 28 29 26 24 23 23

GFSNW_850_spd_057.txt.gz
Wind_Speed
36 35 34 32 31 29 27 26 6 20 34 15 12 22 15 15 17 22 19 8 12 16 17 13 15 13 12 17 9 22 15 8 15 15 9 19 16 12 9 5 5 4 5 5
39 38 37 35 33 34 34 17 12 31 46 11 18 20 27 26 19 12 11 14 10 16 18 11 2 10 12 25 12 17 9 14 6 7 8 9 19 8 9 9 5 8 5 5
39 39 38 39 36 37 39 15 5 11 41 37 23 23 25 23 12 25 29 18 18 21 17 15 5 4 10 31 22 29 24 9 18 17 4 6 6 12 13 10 4 6 6 4
40 38 37 36 36 39 44 20 7 14 11 23 21 17 4 21 17 20 19 14 24 21 11 15 12 4 10 19 27 13 10 15 14 11 11 14 16 12 16 14 14 10 6 7
37 36 35 34 37 45 51 16 9 18 11 25 22 19 25 26 17 17 18 20 23 11 19 19 12 5 3 1 14 10 10 3 9 16 18 15 10 15 15 17 16 12 11 13
36 37 37 38 39 41 36 31 32 22 16 15 16 27 33 27 18 25 25 20 19 21 26 18 5 11 8 4 3 10 10 3 5 17 19 18 16 16 21 15 12 11 13 9
37 38 38 40 43 45 46 29 25 14 5 16 23 26 27 25 19 22 21 21 15 42 14 8 7 7 0 3 2 6 10 14 3 4 4 14 7 11 10 16 14 6 4 4
39 40 41 43 46 48 49 27 23 20 10 16 21 24 20 30 23 25 21 34 36 24 24 13 3 4 4 4 1 8 13 14 3 7 9 5 12 8 4 7 8 7 6 6
41 44 46 46 47 49 49 43 31 9 5 11 32 17 25 14 15 17 28 41 32 23 8 5 13 7 3 4 3 6 11 16 5 3 3 17 2 8 11 3 9 4 3 8
39 41 43 50 50 52 53 42 39 27 3 17 30 14 18 28 18 12 16 23 16 26 5 5 8 8 4 5 6 3 2 8 4 3 1 6 5 8 8 7 4 6 14 7
36 38 42 45 52 50 53 49 39 39 8 13 25 19 10 24 27 11 12 11 12 4 7 5 4 5 9 5 6 6 6 4 1 0 3 5 8 8 6 4 20 19 21 18
35 39 38 42 46 49 50 34 44 40 28 4 20 16 20 26 21 16 20 12 6 10 3 3 4 3 4 8 9 6 5 7 6 7 5 5 19 8 9 15 22 14 10 3
34 36 38 39 45 46 50 37 41 36 25 9 8 16 10 16 17 17 3 6 11 13 8 1 1 2 4 5 11 7 5 7 4 4 6 9 26 18 15 20 22 25 21 5
28 30 31 42 47 46 47 37 41 41 9 3 0 13 23 21 18 12 22 17 22 19 13 3 2 2 8 10 5 6 5 7 7 2 3 14 25 16 15 24 29 32 22 21
22 24 30 38 42 44 47 38 39 30 13 5 4 13 15 13 15 20 23 22 21 4 2 0 3 6 11 4 1 4 5 7 4 5 14 13 15 3 1 10 10 21 34 28
27 22 32 41 46 51 43 19 27 30 17 8 2 3 15 18 7 13 20 20 12 8 7 2 4 9 10 3 4 5 17 8 10 4 6 5 7 2 2 3 4 8 15 17
32 36 50 58 54 34 17 10 29 22 16 6 2 1 7 15 11 3 6 11 3 6 7 5 4 5 5 3 1 14 27 24 17 15 10 7 7 4 6 6 8 10 12 10
41 44 41 41 33 24 21 18 30 23 13 4 3 2 1 11 6 2 7 7 10 6 2 2 3 2 5 1 11 20 24 21 18 20 14 10 5 6 5 8 10 8 8 5
41 36 35 29 24 13 21 33 25 14 6 2 2 3 3 2 3 4 7 10 2 8 2 2 1 1 4 8 15 18 21 18 21 16 11 11 11 10 8 9 7 4 6 7
30 26 12 8 15 28 26 9 4 3 1 1 1 3 2 4 2 1 1 1 3 4 5 7 2 3 5 16 13 13 15 16 15 18 18 18 15 10 7 7 7 5 6 9
8 6 7 26 18 7 4 4 2 3 0 3 3 6 3 4 2 3 3 2 1 2 3 4 3 2 9 19 16 15 12 10 7 5 5 8 7 7 7 9 8 9 10 11
8 19 16 6 5 6 4 3 1 1 1 2 1 2 2 5 5 3 3 3 2 3 2 4 3 3 15 17 15 15 13 10 9 6 6 6 8 8 9 11 10 11 12 14
11 6 4 2 5 5 4 2 2 2 4 9 8 2 3 3 5 2 2 3 2 3 4 3 3 11 14 13 15 16 16 16 16 18 17 17 19 17 17 19 17 17 18 18
6 4 6 4 4 4 4 4 3 4 6 11 10 2 1 2 1 2 3 3 3 5 4 3 4 14 17 16 16 17 20 22 23 24 25 26 26 27 25 24 23 24 26 24
8 8 5 5 6 10 9 11 6 8 9 10 3 0 3 4 3 4 4 4 5 5 3 2 12 17 22 22 20 21 22 24 26 27 29 30 30 31 30 28 27 27 28 28
7 10 4 12 3 6 10 12 8 11 12 6 3 3 3 5 3 5 7 4 5 3 3 11 19 23 23 24 24 26 27 29 30 31 31 32 32 32 32 30 30 29 28 27
6 4 16 12 4 7 12 10 14 11 5 3 3 5 5 3 4 4 5 4 4 11 15 18 21 23 23 24 27 28 29 31 30 30 30 30 29 29 29 30 27 26 25 24

GFSNW_850_spd_060.txt.gz
Wind_Speed
36 35 32 30 28 25 25 23 5 11 31 13 11 19 12 6 11 13 12 6 6 7 4 4 4 4 4 10 5 4 12 6 12 24 14 5 20 11 10 5 5 3 5 6
34 36 35 33 32 30 29 12 10 27 40 11 17 14 14 21 11 2 4 7 11 5 3 4 6 3 9 4 4 7 8 6 8 6 14 16 11 8 12 6 4 11 6 5
37 35 35 37 35 33 32 13 5 11 35 25 13 20 19 18 16 24 27 11 8 6 8 6 7 3 6 11 3 11 4 7 15 18 6 5 5 8 15 12 5 5 8 6
38 37 37 38 37 38 36 18 8 12 10 19 16 12 9 23 19 17 9 8 21 6 5 2 11 6 3 3 8 5 5 7 12 18 16 17 6 9 10 14 9 10 8 12
38 38 40 39 40 38 43 13 9 10 1 23 22 21 25 23 15 12 14 17 10 15 18 8 13 10 10 5 2 3 7 5 14 19 19 17 19 17 19 17 6 6 7 8
37 37 38 40 42 45 36 36 19 13 14 12 16 31 22 16 16 16 22 14 13 16 7 18 20 14 9 0 2 2 4 6 9 6 6 13 8 25 22 8 6 5 7 8
37 37 38 39 39 45 38 25 17 14 8 17 25 14 21 20 18 19 16 20 11 14 14 11 3 3 4 5 5 6 6 4 1 7 8 13 18 5 10 11 13 13 6 7
30 30 32 36 39 42 48 32 20 12 10 16 19 24 15 22 28 23 20 25 25 25 21 2 4 3 5 5 6 9 5 6 3 3 5 8 13 8 15 15 20 14 10 9
31 33 34 36 37 41 46 38 41 8 3 15 28 15 20 13 15 14 25 30 26 19 1 3 7 5 3 3 5 6 7 7 5 3 6 8 2 11 7 3 6 5 7 10
34 35 36 38 39 40 44 33 41 28 4 10 21 13 19 21 14 5 5 9 17 21 3 2 5 8 6 8 7 5 1 1 3 3 4 8 5 8 8 8 5 5 7 6
33 36 41 43 44 42 44 41 30 36 14 17 7 25 13 21 25 9 5 5 5 4 7 4 5 4 7 2 5 8 7 6 4 2 2 8 4 9 3 2 7 14 20 21
30 34 37 39 40 46 45 35 40 29 14 7 13 24 22 21 32 27 18 8 6 11 4 4 3 2 0 6 7 3 2 6 6 7 8 18 7 3 6 5 10 13 18 22
32 34 32 37 39 44 53 41 36 33 16 13 21 18 21 29 25 16 12 20 15 9 10 5 4 4 5 6 5 5 5 5 4 3 8 14 16 5 11 20 14 13 16 16
29 32 36 36 39 41 48 43 39 38 12 2 8 30 18 18 18 27 15 14 17 16 10 4 3 3 5 4 3 5 8 7 8 5 5 5 8 4 7 21 15 18 18 20
29 36 33 35 38 39 45 39 37 39 25 7 4 15 23 25 26 16 23 19 15 8 1 1 3 3 2 0 2 2 6 4 3 7 9 7 9 15 7 9 11 4 7 17
17 29 37 39 37 42 40 15 37 40 20 4 3 7 19 21 22 19 22 22 16 12 7 3 5 4 7 4 4 5 13 18 18 6 22 15 11 11 10 6 7 10 10 7
19 26 40 40 40 42 17 10 27 35 35 3 1 2 6 19 14 8 6 13 10 7 5 8 6 3 3 1 3 10 12 21 17 22 10 12 13 6 4 3 3 2 3 7
35 43 47 42 38 32 9 14 31 37 14 6 3 1 3 14 6 4 6 7 11 11 6 6 3 3 2 2 11 16 16 18 11 21 18 12 6 4 7 7 5 5 6 5
42 51 54 38 16 13 19 29 29 18 4 4 3 4 3 6 4 4 7 7 1 2 2 1 5 3 4 8 13 14 15 13 15 12 10 14 15 10 10 9 9 8 8 5
21 26 11 8 12 24 26 15 4 4 6 5 2 3 3 3 2 1 1 1 2 3 4 5 4 3 3 16 13 14 14 14 13 12 17 18 17 15 13 12 10 9 8 9
15 9 9 26 18 6 6 5 3 1 3 2 1 4 3 3 3 2 3 2 2 3 2 3 3 2 5 15 14 14 12 10 8 5 5 6 5 3 4 7 9 8 8 10
14 23 17 6 6 6 5 2 2 2 2 3 2 2 2 4 3 2 3 3 1 2 2 4 3 4 12 13 15 16 13 12 12 11 9 8 8 7 8 10 11 12 13 14
8 6 6 5 7 8 5 2 3 3 3 9 7 2 2 3 3 2 2 3 2 3 4 3 2 9 12 12 12 15 14 14 15 18 18 18 19 18 17 19 19 18 20 20
7 6 6 4 5 4 3 2 2 4 6 10 6 2 1 2 1 1 3 4 4 4 3 3 4 13 12 13 13 17 20 21 23 24 25 26 26 26 25 26 25 27 28 27
8 8 5 5 4 8 7 11 4 8 10 7 3 1 6 4 3 4 4 4 5 4 2 2 8 16 17 19 20 21 22 23 25 27 29 30 29 30 31 29 29 31 31 30
7 10 4 11 3 6 10 13 10 11 10 4 4 2 3 5 3 4 6 3 4 2 2 10 18 21 22 24 24 24 25 27 30 31 31 31 31 31 30 29 29 28 28 27
6 5 18 12 5 5 9 12 15 10 6 2 3 5 3 2 3 4 4 3 2 10 16 21 23 25 25 25 25 26 27 29 31 31 29 29 26 25 26 28 25 24 23 23

GFSNW_850_spd_063.txt.gz
Wind_Speed
31 30 30 31 27 24 25 23 5 20 32 10 6 13 11 15 3 4 9 3 5 5 3 4 2 3 2 6 3 3 2 2 9 23 14 3 5 7 10 7 4 4 3 12
33 34 34 31 33 29 22 13 9 29 40 11 12 9 12 13 2 1 1 5 3 2 3 4 4 4 7 12 5 3 5 4 4 8 6 3 9 6 5 2 2 12 7 7
40 37 36 31 34 35 30 11 5 10 27 11 17 13 15 13 20 17 8 3 5 3 3 3 4 5 6 18 2 5 2 1 4 4 8 5 4 9 15 10 8 7 15 8
38 37 35 34 35 38 32 17 6 10 7 17 9 17 9 20 12 16 17 9 16 8 4 3 6 5 4 6 1 3 3 2 7 13 15 16 19 10 12 18 12 11 8 12
41 40 40 38 38 37 38 10 7 10 2 23 20 18 19 19 17 8 12 8 6 6 14 11 5 7 3 4 4 4 4 3 2 4 12 20 18 18 23 11 5 7 9 8
42 41 41 41 41 36 28 29 14 10 12 13 16 24 21 16 14 15 24 13 13 10 13 18 26 21 18 10 6 3 4 3 0 6 10 18 7 14 15 17 19 6 10 8
39 40 42 42 44 43 41 26 19 12 6 15 18 16 21 23 18 19 16 26 8 10 8 11 12 16 18 14 10 7 6 5 4 3 2 5 7 25 17 18 19 13 6 6
35 37 40 41 43 45 46 33 30 22 12 9 16 17 17 25 27 19 22 20 21 20 16 2 5 3 2 7 7 8 6 4 3 2 2 8 12 6 13 10 17 13 15 11
30 32 36 40 42 43 44 40 33 22 7 14 14 14 20 11 14 11 19 23 19 9 0 1 4 3 3 1 4 4 5 3 3 3 3 6 2 5 22 15 16 6 11 20
28 28 28 31 34 37 46 29 43 20 6 7 18 8 14 19 15 5 11 19 15 27 2 1 5 5 3 4 8 4 3 1 5 4 4 7 7 6 12 2 5 7 13 10
31 31 31 30 31 31 34 25 34 37 10 8 10 16 9 26 27 8 10 8 7 4 6 4 4 3 5 6 5 7 7 7 4 2 3 8 5 8 7 16 25 8 12 13
32 35 33 33 34 34 33 21 22 27 16 5 20 24 13 12 27 31 22 11 8 10 4 2 3 3 0 4 4 4 6 7 5 9 6 4 11 7 9 14 22 33 20 12
26 28 32 35 37 35 37 31 23 27 7 6 18 18 16 25 20 27 13 14 10 10 8 4 3 4 4 4 6 5 5 4 4 2 5 14 24 24 22 27 28 17 28 19
29 27 31 31 34 39 40 38 34 32 6 2 5 22 33 21 18 20 30 19 19 15 9 3 3 3 2 4 5 7 6 5 9 14 9 15 18 22 29 27 24 22 15 21
32 32 29 32 33 35 38 44 34 36 19 6 6 10 16 24 17 19 25 19 14 5 5 2 3 3 3 3 3 2 4 1 2 4 6 6 17 18 18 15 5 10 10 12
28 36 32 35 31 33 36 14 31 37 34 2 1 11 13 29 27 22 18 18 20 7 3 4 6 7 2 3 7 3 2 4 1 4 22 20 22 8 9 5 5 4 6 8
26 34 33 35 35 38 27 9 26 45 34 5 2 2 5 28 24 19 15 17 11 10 8 4 3 3 9 2 2 5 7 10 10 11 19 6 11 9 10 8 8 8 7 7
34 36 34 36 41 33 14 9 20 43 20 3 2 2 4 15 7 5 9 7 14 9 8 4 2 3 2 2 6 11 10 11 3 15 9 9 6 5 9 9 7 9 10 10
45 44 44 36 23 9 12 22 39 38 6 2 1 3 3 13 5 6 6 6 1 4 3 3 7 1 4 5 10 12 14 11 14 15 6 8 10 10 11 11 11 9 8 7
41 36 12 6 12 44 44 23 7 12 5 6 1 3 3 7 3 1 4 4 2 2 4 8 3 3 7 9 9 10 13 12 11 12 7 11 11 10 10 11 11 10 9 8
7 5 8 31 24 9 4 6 5 5 2 2 1 4 3 3 3 2 4 2 3 4 3 3 2 2 2 9 11 11 8 7 6 2 1 3 3 4 6 10 11 10 11 12
14 19 15 6 4 4 5 2 2 3 2 2 2 4 3 4 3 2 4 2 2 2 3 3 3 2 10 12 12 12 10 9 9 9 11 11 11 11 12 14 15 14 15 15
7 6 6 6 9 10 5 3 3 3 3 8 6 2 2 3 2 1 1 2 2 4 4 3 3 8 8 8 9 12 13 14 15 19 20 20 22 20 21 23 22 21 25 26
8 7 7 4 5 4 3 2 2 3 4 7 2 2 2 3 2 2 3 3 4 4 3 2 2 9 10 11 12 15 19 21 24 25 26 28 29 30 29 29 28 29 30 28
8 8 5 4 3 6 6 8 1 6 6 3 2 5 5 4 3 4 4 4 4 3 1 2 7 15 16 17 18 21 23 25 27 27 29 30 30 32 32 30 30 31 31 31
7 9 4 10 3 6 10 13 9 12 7 4 5 3 4 5 3 4 5 3 3 2 2 10 18 19 20 21 23 25 26 28 29 29 29 29 29 29 29 28 29 28 27 27
5 4 17 9 3 4 9 11 14 10 5 3 3 5 3 2 3 4 4 3 4 10 14 18 19 20 21 21 22 22 23 25 25 26 26 25 24 23 25 28 25 24 24 24

GFSNW_850_spd_066.txt.gz
Wind_Speed
29 27 26 26 24 22 20 20 6 18 27 9 6 8 6 5 8 6 6 2 5 3 4 3 3 4 5 16 5 4 1 2 3 13 12 5 2 5 7 4 6 4 3 9
30 28 26 23 23 23 22 11 7 21 34 10 9 5 5 8 4 4 3 3 4 4 2 3 2 5 5 20 7 3 5 3 3 4 1 4 0 5 7 3 2 9 8 4
32 30 29 28 27 29 25 9 5 9 25 8 17 11 10 11 12 6 3 3 2 2 4 2 3 6 4 15 5 8 3 3 1 1 1 5 7 13 11 10 8 4 16 8
36 34 34 32 31 32 27 13 5 9 6 11 11 17 10 16 9 16 4 4 5 2 3 5 3 4 4 8 8 2 3 5 4 6 8 4 7 10 17 16 13 11 2 10
41 40 37 35 33 31 34 9 5 8 2 20 16 16 14 15 16 7 5 6 3 6 12 11 7 3 2 3 7 2 2 1 3 5 12 7 7 8 8 12 11 12 9 14
43 40 39 36 36 35 26 25 22 5 8 10 13 16 14 18 14 17 20 9 9 7 13 16 21 23 19 11 6 5 4 2 2 3 2 4 6 7 3 7 6 11 16 9
42 41 40 40 40 42 39 21 19 10 6 12 13 16 21 17 19 12 16 24 10 4 2 9 9 16 17 16 13 12 6 2 1 2 2 3 5 4 6 7 9 14 18 15
39 39 40 41 42 44 45 33 24 15 8 5 15 16 19 25 26 19 18 19 28 15 6 4 5 3 3 6 11 11 11 4 1 2 2 7 6 6 5 5 19 10 11 14
34 36 38 40 42 44 44 44 33 18 4 13 8 11 21 11 14 14 25 24 23 9 3 3 3 3 4 3 2 7 5 3 4 2 2 5 4 2 5 3 9 7 9 12
29 31 31 33 38 44 45 35 44 26 5 11 28 9 11 13 10 5 9 23 12 11 2 3 4 4 3 3 4 3 4 2 11 5 4 8 6 5 2 2 6 16 12 11
27 25 25 28 32 37 41 40 35 39 11 12 25 21 12 16 22 7 11 6 6 2 6 3 3 3 5 5 5 4 5 6 4 3 3 8 7 2 1 6 7 13 16 20
27 29 28 29 28 31 38 20 40 37 19 7 22 18 22 30 37 21 24 14 8 12 4 3 3 3 1 5 3 4 4 6 5 8 7 6 9 11 18 16 15 23 14 17
26 30 31 30 28 30 31 30 30 36 10 10 15 16 21 25 31 23 10 16 13 11 14 4 4 4 4 4 5 4 3 3 5 2 7 12 20 25 30 24 29 31 21 16
26 30 32 32 31 30 31 27 32 23 12 3 5 24 19 28 24 22 22 17 17 11 12 4 3 3 6 3 3 4 4 5 6 10 11 13 23 9 20 27 22 28 31 20
23 23 25 29 32 30 32 29 29 27 5 4 5 10 17 26 22 21 22 24 24 12 5 2 3 3 3 2 2 3 2 3 3 9 5 5 11 23 19 16 14 13 10 22
29 27 27 27 28 34 32 8 22 23 24 2 1 3 13 24 29 31 24 20 24 20 8 3 4 5 6 2 2 5 6 3 6 7 19 22 20 5 12 13 11 10 10 6
35 33 28 29 28 35 24 9 7 30 25 2 2 2 6 18 23 19 19 14 6 8 7 6 3 3 10 2 3 5 7 9 13 9 17 8 10 10 11 10 9 8 10 11
29 37 32 28 30 28 13 3 12 35 17 4 1 2 4 20 8 7 17 10 13 4 4 5 3 4 2 1 5 8 11 14 9 10 12 13 12 9 7 8 8 9 12 14
36 38 36 34 25 7 12 8 35 24 6 4 2 2 2 17 5 4 5 5 2 5 3 3 6 2 2 3 7 10 12 10 16 19 13 5 6 9 10 8 10 11 12 11
49 43 16 7 12 24 31 16 7 6 5 2 1 3 2 8 4 2 4 4 3 3 4 8 3 2 8 8 7 9 11 13 12 13 7 10 7 8 9 11 11 11 12 11
13 7 7 34 33 18 4 4 3 4 2 4 3 3 3 1 3 3 3 3 3 3 2 2 2 2 3 9 10 10 9 8 6 5 6 4 3 4 7 9 10 11 11 13
9 22 21 10 5 4 4 3 2 1 2 2 1 4 4 3 3 3 2 1 2 3 2 3 2 2 8 8 10 10 9 8 8 7 8 9 10 11 11 13 15 15 15 16
8 4 6 5 7 9 4 2 2 2 4 7 5 2 3 3 3 2 1 3 3 3 3 3 2 6 8 8 9 10 9 12 13 15 15 16 18 18 19 21 20 21 26 27
7 7 7 4 5 4 2 2 1 3 4 8 5 4 3 5 3 3 3 3 3 3 3 2 2 9 8 9 10 13 17 17 19 20 22 24 25 26 25 26 25 26 27 25
8 8 5 4 4 6 5 7 2 8 5 4 3 6 6 4 3 3 3 4 4 3 1 1 7 11 14 14 15 17 18 20 22 24 26 27 27 28 28 27 27 27 27 27
7 9 4 9 3 6 10 14 9 13 8 5 6 3 3 4 3 4 5 3 3 1 2 8 12 14 15 17 19 20 22 23 24 25 26 26 26 27 27 26 25 25 24 24
5 5 15 7 3 3 8 11 13 10 5 3 3 5 4 3 3 3 4 2 2 7 12 13 14 15 16 17 18 18 19 21 22 23 22 23 22 22 23 25 23 22 21 20

GFSNW_850_spd_069.txt.gz
Wind_Speed
28 26 25 22 19 16 17 14 5 11 20 11 4 5 7 6 6 2 4 2 4 2 4 5 4 4 3 17 8 4 4 2 3 5 7 4 2 3 7 6 8 3 3 10
27 26 24 20 18 15 14 7 11 16 28 9 10 3 5 6 4 6 2 2 1 1 1 3 2 4 4 15 11 5 6 2 1 0 1 5 6 5 7 6 3 13 7 4
28 28 24 21 17 17 15 6 3 12 26 13 16 10 9 8 9 9 1 2 1 0 0 1 3 3 4 14 8 14 3 3 2 2 2 1 2 4 3 2 3 6 12 13
30 28 26 25 22 21 18 12 6 7 5 13 11 14 11 13 9 10 6 4 6 4 1 3 4 2 4 5 8 3 2 4 6 7 9 8 7 10 9 9 9 8 8 13
33 32 30 28 25 24 26 15 8 6 3 8 17 17 11 17 14 10 7 10 7 11 10 10 9 4 3 4 5 6 8 1 1 2 9 11 12 11 13 9 3 2 6 10
35 35 33 34 33 30 28 31 27 11 15 9 8 7 17 17 13 14 13 10 10 10 9 11 18 19 14 10 7 4 4 1 3 3 3 4 7 12 16 8 7 6 5 6
38 39 39 40 40 40 42 24 21 13 10 7 12 9 16 17 20 14 15 20 10 3 1 9 7 12 15 14 12 13 3 2 1 1 2 6 3 6 6 10 11 11 9 5
35 35 37 39 41 42 44 36 21 13 8 13 11 14 17 20 19 18 18 21 16 14 11 2 4 2 2 7 13 13 12 5 3 3 5 8 11 6 2 5 6 6 7 8
31 32 34 40 43 42 44 43 39 15 5 12 20 7 17 11 11 8 22 19 9 7 2 3 4 4 2 1 1 6 12 10 6 3 2 4 4 2 1 2 6 4 2 5
27 27 27 33 39 42 44 34 46 28 11 7 25 12 13 14 14 5 6 11 7 13 4 4 5 4 1 2 3 4 6 6 11 6 5 7 9 4 2 1 4 5 5 8
30 28 26 30 36 39 43 43 35 43 11 17 20 27 18 10 19 6 10 6 6 4 6 4 4 3 4 4 3 6 8 7 4 4 5 9 4 2 2 6 16 13 18 19
29 28 28 26 33 35 43 32 39 33 28 6 27 24 29 35 33 25 20 9 7 10 4 4 3 3 2 6 4 2 4 6 5 8 6 2 2 4 15 14 18 22 21 29
27 26 26 26 25 32 36 36 34 38 16 14 19 18 30 29 29 25 10 14 11 10 9 4 3 4 5 5 5 5 4 4 4 4 3 12 24 13 10 18 18 23 23 23
25 26 27 27 28 28 31 36 41 34 12 4 7 28 24 30 28 29 27 13 17 11 14 3 2 3 6 4 1 5 4 3 5 10 11 13 17 9 21 22 20 21 22 19
22 26 24 31 27 26 29 27 29 34 20 3 5 20 31 25 28 28 31 28 16 11 4 3 3 2 3 1 1 3 3 4 4 7 2 5 8 18 19 17 19 18 18 17
20 22 26 31 29 30 29 8 27 25 20 5 3 6 15 27 30 33 25 17 14 9 5 3 6 6 3 3 3 3 2 1 3 3 10 12 15 12 11 17 15 16 15 12
23 22 22 26 33 36 20 8 14 33 16 4 1 2 6 20 22 22 16 20 9 11 7 3 1 2 7 3 5 3 4 8 10 8 9 6 5 7 17 16 12 10 9 9
31 26 24 26 34 35 12 5 20 32 10 4 2 2 4 17 9 8 14 9 9 9 7 7 3 6 3 2 6 7 8 12 5 8 9 12 12 11 9 9 8 6 5 8
35 32 33 31 22 14 9 25 36 26 5 6 3 3 3 17 6 6 10 6 2 6 4 3 6 2 2 4 6 7 9 9 13 15 13 5 4 6 8 8 6 4 7 5
40 38 10 6 13 37 43 17 5 4 1 3 1 4 1 10 4 4 5 5 3 3 3 6 3 2 9 10 8 8 10 10 12 13 10 13 9 9 8 7 7 7 9 9
20 6 9 37 32 14 4 4 4 4 2 4 3 4 4 4 3 2 2 3 3 3 2 3 2 2 3 8 10 10 9 8 7 4 4 4 4 4 5 8 9 9 12 17
12 21 25 14 5 4 3 2 3 2 2 2 1 3 5 4 3 3 4 2 3 2 2 3 2 2 7 8 9 10 9 9 8 7 7 8 7 9 11 13 14 16 19 20
22 8 5 5 6 7 4 2 2 2 5 7 5 3 3 3 5 3 1 2 3 3 3 2 2 5 6 7 7 9 8 8 10 14 14 13 15 17 18 20 20 23 26 25
7 6 6 4 4 3 3 2 1 3 4 8 6 5 3 5 3 2 4 2 3 3 2 2 2 6 6 7 7 10 13 15 18 20 20 22 24 25 24 24 22 24 26 25
7 7 5 4 3 4 5 5 2 7 4 4 4 6 5 4 4 3 2 3 4 3 2 2 4 8 10 12 13 14 16 18 20 20 22 23 24 25 26 24 25 26 26 26
6 9 4 7 2 6 8 13 7 10 5 4 6 3 4 5 3 4 4 2 2 2 2 6 9 12 14 16 17 19 19 20 21 22 23 23 24 25 25 24 23 23 22 22
6 5 11 5 4 3 6 10 12 9 5 3 3 5 4 3 3 3 3 2 2 6 10 12 12 14 14 15 16 17 18 19 20 20 20 20 20 20 21 23 20 19 19 19

GFSNW_850_spd_072.txt.gz
Wind_Speed
20 23 20 19 18 14 13 7 4 9 16 11 4 9 9 8 11 10 8 4 7 6 4 4 6 2 5 14 15 4 4 3 5 7 6 3 13 18 17 11 12 8 11 10
24 20 20 19 16 16 11 7 12 12 17 7 7 5 13 19 15 11 5 7 6 3 4 4 2 3 3 7 10 8 7 2 6 10 6 2 8 2 5 6 8 14 10 6
26 23 22 20 18 19 17 6 3 15 18 19 17 18 15 6 16 14 9 7 4 6 10 8 5 3 4 15 10 12 4 4 4 3 2 3 4 3 2 5 7 11 13 14
28 27 25 22 23 20 20 13 6 9 5 11 9 16 10 21 16 15 14 9 15 14 11 10 11 10 8 5 8 4 4 6 7 6 4 4 6 7 6 8 8 9 11 13
32 31 29 26 26 23 27 10 8 8 12 12 10 9 16 23 21 15 12 13 8 14 16 12 8 6 7 7 3 5 5 5 5 9 8 10 13 13 12 12 11 11 11 12
33 34 33 30 29 29 23 24 16 11 9 14 12 10 18 18 20 18 20 12 11 13 14 13 12 12 13 12 8 4 4 3 5 9 3 7 10 17 18 16 11 11 10 7
37 37 37 35 34 36 34 18 18 14 11 11 13 19 16 20 20 20 17 18 11 3 0 7 11 12 13 14 15 14 6 5 2 2 4 6 2 1 4 8 11 10 10 9
32 36 37 37 39 39 38 34 23 16 12 19 23 21 11 20 25 21 20 15 12 9 4 3 5 6 7 11 17 15 14 8 3 4 9 13 16 10 8 7 2 3 6 7
26 31 36 38 38 39 47 44 36 19 6 18 30 21 18 10 12 15 22 3 12 8 3 4 4 5 3 5 6 13 14 13 8 5 5 5 3 3 3 2 4 7 6 9
24 27 29 32 35 38 39 40 46 35 20 23 10 16 17 16 8 6 7 9 7 12 5 6 6 6 2 4 5 5 8 10 13 11 7 4 8 6 4 5 4 13 14 15
27 28 28 27 30 32 41 43 43 46 21 29 23 23 25 20 22 9 7 6 4 4 7 5 4 5 7 6 3 7 8 9 7 9 8 9 3 3 7 8 12 14 17 19
26 29 28 30 29 27 38 32 42 35 32 10 24 32 22 22 19 16 17 7 7 10 7 6 4 4 3 8 7 13 6 7 5 8 8 4 3 3 10 9 11 14 15 18
27 28 26 28 28 26 39 38 34 34 24 24 32 18 26 24 23 18 8 9 8 9 9 3 3 5 7 7 11 10 11 11 7 9 8 12 6 6 10 14 13 14 14 15
21 26 26 27 27 26 38 39 33 40 7 5 9 27 30 21 28 28 28 16 14 13 11 7 4 4 6 7 9 9 8 4 10 13 12 12 16 6 12 14 12 13 14 14
19 23 25 26 26 24 32 36 40 44 23 5 12 10 23 20 26 29 29 26 13 12 5 3 4 7 4 4 4 8 10 11 8 8 8 5 11 12 14 16 15 15 15 16
19 23 25 26 26 27 29 10 29 45 31 5 4 7 14 23 25 30 28 27 18 9 5 3 4 5 5 4 7 7 4 2 5 4 9 9 12 16 7 11 16 14 12 11
22 24 26 25 32 31 17 7 22 41 36 2 3 4 5 21 19 17 17 14 8 6 6 5 4 7 10 2 7 7 3 6 7 7 11 10 3 10 15 17 13 12 9 9
23 24 25 32 33 26 7 7 37 35 13 5 3 3 4 14 7 6 14 5 10 8 5 5 4 4 3 4 4 4 6 8 3 8 8 9 12 6 10 11 10 7 8 8
27 24 40 36 24 11 10 31 34 20 6 4 3 5 4 15 8 7 10 10 4 6 3 3 8 3 2 6 7 8 10 8 12 13 8 5 4 6 8 9 8 5 5 6
38 43 14 7 17 25 31 16 4 4 4 3 2 2 2 14 9 4 5 5 2 3 2 5 2 3 10 8 7 7 8 9 10 10 5 9 5 5 6 7 6 6 7 7
15 5 8 39 36 19 4 4 4 4 3 4 2 3 4 4 4 4 3 2 4 4 2 2 3 3 4 7 6 6 6 5 5 3 3 4 3 4 6 7 6 8 10 12
15 26 28 18 4 3 3 3 3 2 3 3 2 3 4 4 4 2 4 2 2 2 2 2 3 3 5 5 6 6 6 5 5 6 6 7 9 10 10 11 11 14 16 18
29 8 4 3 6 4 2 5 3 4 2 3 1 3 3 4 2 3 1 2 3 2 2 2 3 5 6 6 5 7 8 8 9 11 12 13 15 15 15 17 18 20 22 22
7 6 6 5 4 4 3 2 3 2 2 3 4 5 2 3 3 2 3 2 2 2 3 3 3 5 5 6 7 8 10 11 13 14 16 19 20 21 21 21 21 22 22 22
6 6 5 4 2 3 4 3 1 4 3 2 5 6 3 3 4 3 3 2 3 3 3 2 6 7 7 9 9 10 11 13 15 16 18 19 21 22 23 22 22 22 22 22
6 8 4 3 1 5 5 8 6 7 4 4 4 3 3 5 3 3 4 1 2 3 3 7 7 8 9 10 12 13 13 15 16 17 18 20 21 21 22 21 20 19 18 18
5 5 8 5 5 7 6 7 8 7 4 3 3 4 4 2 3 3 3 3 4 7 7 8 9 9 10 11 13 14 15 16 16 17 17 18 18 17 17 18 17 16 15 14

GFSNW_850_spd_075.txt.gz
Wind_Speed
21 20 20 18 14 11 10 10 4 7 19 12 5 10 16 21 11 15 14 8 10 11 7 6 6 2 4 7 13 7 10 5 8 15 18 23 18 19 18 9 13 11 12 9
20 20 21 20 16 14 10 9 14 10 15 7 10 12 19 19 16 18 15 15 13 12 10 5 6 5 6 6 7 8 8 8 8 11 8 11 14 18 21 18 15 13 3 2
20 21 22 19 18 15 17 6 4 17 15 12 9 15 18 17 18 23 22 16 14 15 16 13 7 7 1 6 6 9 6 9 12 8 6 3 12 8 13 10 9 11 13 14
25 24 26 23 18 19 18 11 7 8 7 14 17 15 7 20 18 18 14 16 19 17 16 16 16 15 12 8 0 6 3 6 11 7 8 3 6 7 10 13 14 12 14 13
30 27 27 27 24 23 25 8 7 12 17 10 9 18 16 19 19 20 18 18 18 20 20 18 15 9 2 9 4 4 3 9 7 13 6 7 10 12 11 12 11 12 12 15
32 31 29 32 29 27 23 24 19 13 11 15 13 11 15 18 16 16 21 17 17 14 13 14 14 13 11 12 8 8 6 7 9 11 9 7 10 15 16 14 15 13 13 6
25 33 36 36 37 33 30 24 23 12 9 12 14 17 16 16 10 17 17 24 15 7 6 9 12 15 16 16 15 14 9 10 7 7 1 10 6 1 4 10 13 13 11 5
24 26 32 39 40 38 37 31 23 17 9 19 19 21 16 12 12 14 16 30 6 4 4 5 9 10 11 15 17 16 15 12 5 5 9 13 15 11 10 9 8 3 0 3
23 24 28 42 43 40 39 39 32 17 8 16 25 19 24 14 8 9 21 0 10 4 1 4 6 7 9 9 8 19 16 15 9 6 11 10 6 4 4 3 7 8 5 5
23 21 21 32 37 40 42 33 38 30 8 25 12 16 15 19 11 5 10 7 5 8 4 5 7 8 3 4 8 12 11 10 14 12 9 7 3 5 1 11 5 3 6 8
23 23 24 28 36 42 43 50 38 38 16 31 26 24 18 14 16 8 2 6 3 2 5 5 5 5 6 6 3 10 11 9 7 9 6 15 9 6 7 8 5 8 9 11
26 26 28 29 30 35 37 32 44 44 32 15 23 31 27 22 14 12 11 7 4 11 6 7 4 4 3 8 8 11 7 8 8 10 8 4 3 8 8 8 9 12 14 14
27 28 27 30 30 30 36 39 29 36 31 23 29 27 15 27 25 11 6 5 7 8 11 2 3 5 5 5 9 9 10 6 4 1 5 1 11 1 11 11 12 12 13 14
23 30 29 28 31 31 31 35 34 41 15 5 15 19 34 15 23 22 21 17 14 13 8 5 4 3 5 6 8 9 8 6 12 10 11 11 2 12 12 13 13 14 15 14
22 29 26 27 29 29 30 32 39 44 28 7 21 18 18 26 30 21 25 23 18 10 3 4 4 9 5 6 6 8 10 8 6 4 11 7 9 14 11 11 14 15 16 15
22 23 21 29 29 28 27 12 33 37 35 5 2 14 15 14 23 28 27 24 20 11 5 2 5 7 1 3 7 12 2 10 10 6 8 8 10 7 11 9 12 14 15 13
25 23 23 25 28 31 22 8 15 38 31 8 3 3 6 18 18 17 16 16 10 8 3 4 4 9 8 3 5 6 9 9 9 10 13 1 9 9 10 11 13 10 6 8
26 24 26 27 28 27 9 10 13 39 26 7 3 2 5 15 8 6 12 7 8 7 3 3 4 7 4 2 9 7 9 8 4 10 9 6 5 7 10 11 10 7 7 8
27 30 29 31 24 13 9 17 34 36 8 5 3 4 4 11 5 6 6 6 1 5 3 4 5 4 0 4 6 8 9 8 10 11 6 3 4 5 7 7 7 5 6 7
36 47 15 6 16 27 32 23 6 6 4 4 3 4 3 11 11 7 5 5 2 3 5 5 2 3 8 5 5 6 8 8 9 9 6 9 6 6 6 7 7 6 6 7
28 6 6 29 34 20 4 4 4 4 4 6 3 4 6 4 6 4 5 2 3 3 3 2 3 3 4 5 5 6 6 6 6 4 4 4 3 3 4 5 7 8 9 11
10 23 28 16 4 3 4 3 3 2 3 4 4 4 4 3 1 3 4 2 2 1 3 2 3 4 6 6 6 7 6 6 6 6 5 6 7 7 9 9 10 12 13 16
28 8 5 1 3 2 1 5 3 4 2 3 4 3 4 2 1 2 1 3 2 1 1 2 4 8 7 6 5 6 6 7 8 9 9 10 12 12 12 13 13 14 17 18
7 4 5 4 3 4 3 4 4 4 3 3 6 5 2 3 2 2 2 2 3 3 4 3 5 8 6 6 7 7 9 10 11 11 13 14 16 17 16 16 16 17 18 17
6 6 4 4 3 6 5 2 2 5 3 3 5 5 5 3 3 2 2 2 3 5 4 3 7 6 7 7 8 9 10 11 12 12 14 15 16 17 18 17 17 17 18 18
6 8 4 2 5 7 9 8 8 7 4 2 2 3 3 3 2 2 3 1 3 3 4 8 6 7 8 9 10 11 11 12 13 14 14 16 17 17 18 17 16 15 15 15
5 5 8 7 9 9 7 8 8 7 5 3 2 3 3 2 3 3 4 4 5 9 9 9 9 9 9 9 11 12 12 13 13 14 14 15 14 14 14 15 14 13 12 12

GFSNW_850_spd_081.txt.gz
Wind_Speed
21 19 18 17 16 13 13 9 3 8 11 8 4 6 4 8 17 23 10 8 6 9 12 6 6 3 5 8 3 4 4 4 4 9 10 11 13 13 13 2 2 4 2 4
20 18 17 16 15 12 13 6 11 13 7 5 5 3 12 17 18 16 7 7 8 7 9 5 5 7 11 8 4 3 3 3 4 5 3 5 5 12 16 7 7 3 2 1
21 20 17 15 13 12 11 6 3 4 12 7 3 8 11 14 15 14 20 13 15 11 8 8 5 8 1 9 5 9 4 2 2 6 4 1 4 9 12 12 3 4 6 10
21 23 20 16 14 11 12 4 4 3 3 3 5 7 6 6 12 17 17 7 12 12 8 7 6 8 7 2 6 6 6 5 4 9 12 8 7 8 6 11 12 6 2 10
24 24 23 20 17 14 16 4 4 4 9 12 8 9 4 13 14 11 10 8 8 9 7 7 8 5 6 3 6 7 6 5 5 8 10 13 7 9 8 3 2 8 6 9
23 22 23 21 22 20 16 17 16 6 7 6 3 5 7 9 10 12 11 11 10 12 6 12 12 2 3 1 1 4 4 4 3 4 8 6 5 9 10 12 16 14 9 8
21 21 22 24 27 29 29 19 13 4 5 4 7 14 12 11 12 9 11 3 4 5 12 20 10 9 9 9 7 8 4 6 3 3 7 5 6 6 10 12 8 9 3 6
20 21 20 18 20 31 33 31 16 6 3 9 12 15 11 10 12 7 9 10 12 6 5 1 5 4 4 6 13 11 8 4 2 2 3 9 14 2 3 1 3 7 5 11
19 18 18 16 16 32 33 34 30 15 3 5 17 14 13 5 5 6 13 6 4 3 1 3 3 4 5 4 4 18 14 6 5 2 4 5 10 5 11 2 3 11 16 14
20 20 20 20 19 21 36 33 34 26 9 19 19 4 7 10 13 4 4 2 4 3 2 1 3 3 4 3 4 2 10 6 12 7 4 7 4 4 8 4 2 14 21 19
23 22 22 21 22 21 33 41 27 34 12 20 15 16 17 11 10 2 9 4 1 1 1 2 4 2 4 3 2 8 7 7 5 4 4 7 10 3 3 4 17 21 24 23
26 26 24 20 23 23 23 32 37 26 25 10 5 18 27 27 24 17 3 5 4 2 2 1 3 3 3 3 3 8 3 4 4 7 6 4 20 19 19 19 21 22 22 20
20 19 20 21 24 23 24 34 32 29 14 19 30 35 27 18 20 17 10 5 6 1 5 2 3 4 3 3 4 2 4 7 2 2 11 13 23 21 26 21 26 23 13 13
17 13 14 14 21 20 23 36 29 34 6 3 11 13 17 23 20 14 22 23 12 6 3 2 2 2 3 2 5 3 4 3 3 3 10 17 15 17 15 20 21 16 11 9
15 18 17 16 21 20 19 27 31 29 25 4 5 14 17 20 17 27 19 16 17 7 2 2 2 3 5 4 5 3 7 5 3 4 13 14 9 12 11 14 13 12 14 8
18 18 18 16 22 24 27 11 29 32 31 7 3 7 11 11 22 21 25 14 14 6 3 2 4 7 4 2 2 7 17 20 21 4 7 17 15 11 12 13 10 8 8 8
22 19 19 17 27 31 29 8 7 28 25 5 3 4 4 17 19 19 19 18 5 5 5 4 4 5 2 2 2 10 15 12 14 16 12 10 13 11 10 12 12 9 11 11
26 21 19 20 27 31 29 5 4 23 25 5 3 3 2 14 6 5 8 8 6 4 3 3 3 4 3 3 7 10 14 12 15 21 15 12 11 6 9 7 6 9 12 10
28 21 22 32 31 17 20 14 9 29 9 5 4 2 2 9 4 6 5 6 2 6 3 4 4 2 3 3 10 13 13 12 11 10 9 13 12 10 9 8 9 11 11 11
31 31 15 6 16 19 28 15 19 8 5 5 3 5 1 5 4 3 5 6 2 3 5 3 3 3 12 12 13 13 12 11 11 10 14 13 11 10 10 12 11 11 11 14
29 7 5 32 27 17 9 6 5 5 3 7 6 5 2 4 2 3 4 2 3 2 3 5 2 2 4 11 11 10 9 8 9 7 5 5 6 9 8 9 10 10 11 13
9 20 28 27 7 4 4 4 4 4 5 2 5 6 2 3 2 3 3 3 2 3 4 2 2 3 10 11 10 9 10 7 6 5 5 5 6 5 6 9 11 13 14 15
31 12 4 4 3 4 5 5 2 3 2 4 6 4 3 3 4 2 2 3 1 5 2 3 3 9 8 7 6 7 4 4 5 5 4 5 7 8 10 13 12 12 13 13
5 3 5 4 3 3 2 3 2 3 5 12 15 6 3 3 2 1 1 1 1 2 3 2 2 9 7 6 5 7 9 9 10 11 12 13 14 14 13 13 13 15 17 16
6 6 4 3 1 2 1 4 5 5 7 10 9 6 5 2 3 2 2 2 3 3 2 2 9 8 7 6 5 6 7 7 9 9 11 11 12 13 14 13 13 14 14 13
5 8 3 3 4 6 10 11 8 6 7 9 4 3 3 3 2 3 4 2 2 1 3 13 10 9 8 8 7 6 6 7 8 9 9 10 11 13 14 12 11 10 9 9
5 4 12 9 10 10 10 11 10 6 4 2 3 4 3 1 3 3 3 2 3 12 15 13 10 10 10 10 9 9 9 9 10 11 11 12 11 10 9 9 8 7 7 6

GFSNW_850_spd_087.txt.gz
Wind_Speed
16 16 13 12 14 14 14 7 3 8 15 5 3 3 3 8 8 12 8 5 7 6 6 7 6 5 3 8 4 4 3 3 1 6 3 4 5 4 5 3 2 3 5 3
15 13 11 10 12 12 11 5 8 5 7 2 3 4 10 8 8 11 6 7 6 7 4 3 8 8 6 8 3 3 1 2 2 4 2 6 5 2 2 7 2 7 3 4
17 13 12 10 10 11 7 4 3 3 3 6 4 5 10 6 7 10 12 10 9 5 4 5 4 7 8 9 4 11 4 2 2 2 5 3 3 5 4 5 3 2 6 5
15 15 12 11 9 10 5 2 3 2 3 2 6 8 3 3 3 4 5 3 5 4 4 3 4 7 6 6 10 5 4 1 1 4 6 6 9 11 11 8 9 6 7 10
13 12 12 12 10 12 12 4 2 4 7 12 7 10 10 11 5 3 5 7 4 4 3 2 3 3 4 4 6 4 3 2 4 3 7 8 9 11 12 8 9 9 11 13
18 14 11 12 11 14 13 11 10 5 4 5 3 3 11 10 12 7 7 9 3 5 2 4 7 7 6 4 2 3 2 2 3 3 7 9 5 4 7 4 5 3 4 5
11 11 13 13 10 16 19 15 10 5 4 2 4 10 11 11 11 5 10 10 3 3 6 9 7 7 9 7 7 8 3 4 3 3 4 3 6 12 11 5 7 5 13 8
13 14 14 13 12 13 20 21 12 6 3 6 7 8 4 10 11 4 4 8 5 7 6 3 3 3 3 4 6 7 6 4 1 2 3 6 10 4 5 8 11 4 9 5
15 15 14 14 12 11 14 16 20 10 2 5 13 4 5 1 3 6 6 12 9 6 3 3 2 1 1 3 5 4 5 3 3 1 3 5 5 4 15 9 6 9 7 21
17 16 15 14 12 11 15 18 22 20 5 12 11 2 1 2 3 2 4 11 8 9 2 0 2 2 2 2 1 1 2 1 7 5 5 6 4 9 13 1 4 12 16 8
17 17 16 16 15 14 14 21 17 25 11 15 4 4 14 7 4 1 5 3 4 2 2 0 2 2 2 2 3 2 4 4 3 2 5 8 11 7 3 3 18 16 20 18
18 19 18 18 18 16 16 22 21 16 17 7 4 20 22 17 11 8 1 3 2 4 3 1 2 2 3 2 2 4 2 3 2 4 3 9 16 17 17 18 17 16 20 16
19 20 19 19 20 19 19 24 18 24 17 18 23 24 20 14 21 17 6 4 4 3 7 3 2 3 2 2 2 2 3 3 3 4 8 10 11 16 21 19 20 16 15 14
20 21 19 19 20 20 21 26 25 22 6 5 8 9 11 19 27 22 18 15 7 5 3 2 2 2 2 2 3 1 3 9 6 3 5 5 15 14 13 16 14 14 13 12
19 19 16 16 16 15 20 24 28 24 19 3 5 12 18 12 10 17 26 26 19 10 3 2 2 3 3 2 1 3 7 4 4 3 8 7 7 11 8 10 10 10 7 8
10 13 14 13 11 14 20 6 17 16 19 3 2 5 5 4 16 14 19 20 14 6 4 3 4 4 2 1 2 4 10 12 12 3 15 15 12 10 10 8 8 7 6 6
13 11 11 13 14 11 16 5 4 24 21 3 3 5 0 3 10 12 15 18 12 9 4 4 4 4 4 1 2 6 7 9 12 9 7 6 10 6 7 7 6 7 8 8
18 16 13 11 12 14 11 3 2 23 17 4 2 3 4 7 5 5 7 9 10 4 4 3 3 2 3 2 6 7 7 4 9 10 8 7 5 3 4 5 5 7 6 6
18 16 16 22 21 15 9 6 8 23 5 5 3 2 3 2 4 4 5 6 1 3 2 3 3 1 1 3 6 6 7 6 6 4 2 0 1 3 5 5 5 4 2 3
23 19 11 5 16 15 21 13 11 9 4 5 4 6 2 8 4 2 5 3 3 3 5 6 2 2 9 8 5 2 3 5 5 3 2 2 1 3 5 5 4 2 1 3
29 13 6 19 37 19 6 6 5 7 3 6 7 17 4 7 3 2 5 3 3 3 3 3 2 2 4 5 4 3 2 2 4 2 0 2 2 1 1 2 2 2 3 4
27 18 34 17 7 5 4 4 5 4 5 7 5 7 6 6 6 3 4 3 3 3 4 3 2 2 7 3 3 4 3 4 2 4 5 3 3 2 1 2 3 3 4 4
35 17 7 6 4 3 6 7 3 4 5 8 7 3 4 3 3 3 2 3 3 3 3 2 2 9 6 4 2 2 2 3 3 4 5 5 5 5 6 7 8 7 7 6
6 5 4 2 1 2 4 3 3 4 6 16 16 5 3 2 2 0 3 0 3 2 0 4 2 9 8 5 4 4 7 8 8 9 8 8 8 9 9 8 8 7 8 7
6 4 3 1 2 2 2 8 8 5 15 16 10 5 3 2 3 2 2 3 1 3 3 2 10 10 7 6 6 6 7 7 8 8 8 9 9 9 10 9 8 7 7 6
5 6 3 4 6 3 5 7 6 7 17 9 4 3 3 2 3 3 2 1 3 2 2 12 12 9 7 6 6 6 7 7 7 7 7 7 7 7 7 7 5 4 3 3
4 4 11 10 9 6 4 3 3 6 5 2 3 4 3 2 3 1 0 3 3 7 14 12 8 8 9 8 8 7 7 7 7 8 8 7 6 5 4 3 3 3 3 4

GFSNW_850_spd_090.txt.gz
Wind_Speed
12 12 8 8 11 13 14 8 4 10 12 3 2 2 3 6 10 13 2 6 4 4 9 10 6 6 6 11 2 4 3 3 3 4 4 4 4 4 4 3 3 4 4 6
12 11 9 8 8 12 11 6 6 6 10 3 3 6 6 9 8 7 1 4 3 7 6 6 8 6 13 12 5 1 2 3 3 3 3 7 6 2 4 3 1 4 3 5
12 11 9 8 6 10 8 4 3 4 3 2 4 4 6 5 10 11 5 4 6 2 6 6 6 5 4 7 4 14 6 4 5 3 3 1 2 3 2 4 3 4 7 10
11 12 10 7 5 8 5 1 2 2 4 4 6 10 7 12 1 1 8 5 5 5 4 6 5 5 4 11 14 7 4 4 4 4 2 2 2 5 8 8 10 8 8 12
9 8 9 6 5 7 7 4 2 2 7 10 6 9 8 13 12 4 3 8 7 3 3 1 1 4 6 3 6 5 5 2 2 1 3 4 3 10 6 9 11 11 14 17
12 14 13 8 6 10 5 8 9 2 5 4 3 0 8 15 13 8 5 6 3 4 4 5 6 6 6 3 2 3 2 3 2 2 1 4 4 3 5 7 5 4 6 4
16 12 9 10 9 11 12 10 8 5 3 1 3 8 12 11 14 6 11 12 5 8 15 14 8 7 7 6 5 4 3 3 2 1 3 2 4 7 3 5 5 8 6 4
17 14 12 12 11 11 13 15 12 6 2 4 6 8 5 14 14 5 5 9 12 14 8 4 2 2 1 1 2 4 3 3 2 1 1 5 11 2 3 3 11 6 6 1
16 17 14 13 12 11 12 12 10 6 1 4 8 3 4 3 4 6 5 14 12 11 3 3 3 3 2 4 3 7 6 4 2 0 1 2 5 2 8 3 8 11 12 9
15 17 16 14 13 12 12 13 11 12 3 11 6 2 2 2 3 3 5 11 11 13 4 3 2 3 2 2 2 1 3 2 3 3 4 5 5 12 11 3 4 11 15 12
18 18 16 15 15 12 12 13 19 15 7 19 9 12 15 11 5 1 7 4 6 4 5 2 2 1 3 3 2 2 3 3 3 2 3 7 14 4 3 3 11 13 16 19
18 17 16 16 16 15 15 16 16 16 14 8 8 11 24 12 6 1 4 2 1 3 2 3 3 2 3 3 2 4 3 1 1 4 3 7 11 13 14 12 15 16 19 16
16 16 19 18 18 18 18 17 14 22 12 18 21 23 19 21 18 24 6 2 3 2 2 1 2 2 2 2 2 4 4 6 2 2 8 12 16 14 14 14 15 15 16 14
15 17 18 21 19 20 19 21 20 20 4 2 7 8 8 9 19 14 20 11 5 1 3 1 1 2 1 1 3 2 4 8 6 2 4 7 18 17 11 13 14 16 15 13
17 17 19 21 20 19 18 23 27 21 14 3 5 11 13 12 8 24 19 16 13 7 3 3 3 2 2 1 1 2 4 3 2 2 9 4 8 12 11 15 17 14 11 11
11 11 17 20 19 17 20 9 24 22 26 3 2 4 2 4 12 12 13 19 17 10 4 3 3 2 1 1 1 2 4 5 12 2 5 7 6 11 13 16 16 14 13 11
10 10 13 15 14 22 13 4 3 21 20 4 3 5 1 2 9 9 7 11 7 6 3 3 2 3 2 2 2 2 4 7 9 9 6 1 11 8 10 11 11 11 10 9
14 13 12 12 13 14 13 4 2 22 11 4 1 3 1 6 4 4 7 7 10 4 3 3 2 1 0 2 4 3 4 3 5 10 9 5 4 5 8 9 8 8 9 8
19 13 13 20 18 9 9 7 8 22 3 4 2 2 3 6 4 5 5 6 2 4 3 3 3 1 3 2 5 3 5 4 8 5 5 4 5 6 8 7 6 6 7 5
17 14 8 7 15 17 23 13 12 8 4 5 3 4 2 6 5 2 4 1 3 2 5 6 2 1 6 6 4 1 2 5 6 3 3 7 4 6 7 9 6 4 5 6
18 9 5 19 31 15 4 5 4 6 3 6 6 12 3 6 2 3 4 2 2 2 3 4 3 2 4 5 3 1 3 4 6 5 4 3 3 4 6 5 4 5 5 5
18 10 19 26 6 4 4 3 4 4 5 6 4 7 6 5 4 2 5 3 3 4 3 2 2 1 10 6 2 3 3 3 3 3 4 3 3 3 4 3 3 4 5 6
21 9 8 8 4 3 6 7 3 4 5 8 7 3 7 4 4 2 2 3 3 3 2 1 1 9 8 5 3 2 2 2 2 2 2 2 0 1 1 3 6 6 7 8
6 6 6 4 3 4 4 4 4 5 8 15 14 5 2 2 2 1 3 2 2 2 1 3 1 11 8 5 3 3 5 5 5 6 6 7 6 7 7 7 7 5 5 6
5 5 4 3 4 3 5 6 7 9 16 18 10 4 3 1 3 1 2 1 3 3 3 2 10 11 8 6 5 5 7 7 8 9 8 9 8 8 9 8 7 6 6 6
3 6 5 6 6 2 4 8 9 11 17 10 5 2 3 1 3 2 3 4 4 2 2 13 15 12 9 9 8 8 8 8 8 8 8 8 7 6 6 6 5 4 4 4
4 4 11 7 10 7 3 5 5 12 10 2 3 3 4 2 3 1 1 3 2 8 16 14 10 11 10 9 9 9 9 8 8 8 8 7 6 5 4 4 4 3 4 5

GFSNW_850_spd_093.txt.gz
Wind_Speed
6 8 6 6 7 11 14 9 3 11 14 4 2 3 5 11 16 20 10 5 5 7 8 5 4 6 9 18 2 3 1 4 5 3 2 7 3 4 3 2 4 1 1 6
8 8 8 5 6 10 13 10 4 6 9 3 4 6 9 10 11 9 4 6 6 3 5 5 6 8 14 15 5 2 0 2 6 8 5 7 6 3 6 7 3 4 3 4
9 9 6 3 2 7 10 4 3 3 3 2 5 9 8 14 16 11 7 7 6 3 5 7 7 9 10 15 11 13 5 5 5 5 6 3 4 2 3 3 2 1 7 18
10 9 7 3 2 3 6 4 1 2 4 4 5 5 5 13 8 6 10 2 10 5 5 7 8 10 7 12 22 5 3 6 6 8 6 3 2 4 3 5 6 5 8 16
10 8 6 5 5 3 1 2 1 2 5 10 6 3 4 13 18 5 5 10 12 6 6 5 4 7 3 1 7 5 5 2 2 3 5 4 1 6 4 7 8 11 14 14
10 8 8 8 8 5 2 4 5 3 3 4 3 2 6 11 15 8 7 13 5 6 7 14 16 11 9 4 6 5 2 3 1 2 2 4 4 2 3 2 3 3 6 6
10 11 9 11 9 9 8 8 5 3 3 2 4 9 13 13 14 8 11 12 7 9 25 18 6 5 7 5 5 2 1 2 2 2 1 1 1 6 2 2 4 8 8 7
10 12 10 12 9 9 10 11 9 4 2 4 8 6 8 15 13 4 4 8 12 19 11 4 3 2 1 4 8 3 0 2 3 2 1 5 2 6 6 6 9 10 9 8
11 14 14 15 10 10 11 10 8 6 1 3 3 4 4 3 5 7 4 12 10 14 2 2 3 3 3 3 2 6 4 4 3 2 2 1 4 9 13 4 8 14 13 11
15 13 14 17 12 11 11 11 10 8 3 8 8 3 2 4 3 3 6 12 10 15 5 3 3 2 3 2 3 2 3 4 4 2 1 5 6 16 13 2 5 13 11 13
18 14 13 18 15 13 11 12 12 17 6 12 13 8 10 9 6 2 7 5 4 5 5 4 3 3 3 2 2 3 2 1 1 2 3 3 16 6 4 2 12 10 11 12
14 15 14 18 15 14 13 9 11 9 16 9 10 12 15 17 12 4 3 1 2 3 2 3 2 1 3 4 2 4 2 4 2 3 3 9 14 10 12 14 12 14 14 12
17 17 15 17 14 14 16 13 11 15 13 17 18 16 10 16 22 20 4 2 2 2 3 2 2 2 3 2 2 4 3 7 2 2 5 8 14 14 16 17 15 15 14 13
18 16 16 16 19 15 17 18 16 14 5 3 6 5 5 4 11 21 21 19 8 2 4 2 2 2 1 1 3 1 2 6 4 1 4 4 15 14 11 13 14 14 13 12
14 14 15 16 17 18 16 19 21 21 13 3 6 12 9 6 10 11 16 14 13 2 4 2 2 2 2 1 0 1 3 3 2 3 7 5 5 9 11 13 14 13 10 11
18 19 18 16 16 18 14 8 23 26 24 5 2 4 2 3 8 8 19 13 12 7 3 4 3 3 1 1 1 2 3 5 10 4 5 10 9 9 10 12 13 11 10 9
18 12 8 14 20 24 21 5 3 12 24 4 3 3 0 1 8 9 8 10 8 6 4 3 2 3 2 2 2 6 4 5 8 9 6 8 8 6 7 8 9 9 9 9
11 8 11 13 20 22 24 7 2 11 13 4 1 2 1 7 4 4 6 7 6 5 3 2 3 2 0 2 5 5 3 2 5 8 8 6 4 4 6 6 6 6 8 9
12 11 14 23 19 13 9 9 9 17 3 5 2 2 2 7 4 4 5 5 2 3 3 3 4 1 4 2 7 5 5 3 4 3 5 5 4 4 5 5 5 5 6 7
10 16 9 7 12 15 24 12 8 7 4 4 3 4 2 6 3 2 3 2 2 3 4 4 3 1 6 5 6 4 3 4 5 3 2 5 5 5 5 7 6 6 7 9
14 7 4 21 25 14 4 5 4 5 3 6 5 11 3 6 2 3 4 2 2 2 3 4 3 2 4 7 5 3 3 4 5 4 4 4 2 3 5 6 7 7 7 8
14 10 15 28 6 4 4 3 4 4 4 5 5 7 4 5 5 2 4 3 3 4 6 3 2 2 9 8 4 2 2 2 2 3 3 4 4 4 4 6 8 8 8 8
20 7 8 7 4 3 6 7 3 4 6 8 8 4 8 4 5 2 2 3 3 2 1 2 1 9 8 6 3 2 3 3 3 4 5 7 9 10 11 12 13 10 9 10
5 6 6 4 4 4 4 4 4 4 8 17 15 7 3 3 2 1 4 1 1 1 2 3 3 10 9 6 4 4 7 7 8 9 10 11 10 11 11 11 11 9 9 9
4 4 4 5 3 3 8 10 8 9 16 19 9 5 3 1 1 1 2 2 3 3 2 2 10 12 9 7 6 7 8 8 9 10 10 10 9 8 8 9 9 8 7 7
4 4 3 3 4 5 8 10 10 14 18 12 4 3 2 2 2 3 5 4 4 1 2 12 16 12 10 9 8 8 8 8 8 9 9 9 8 7 6 6 5 4 4 4
3 2 5 4 4 5 7 10 9 19 14 2 3 4 4 3 1 2 2 1 1 7 16 16 12 11 11 10 10 9 8 8 8 7 7 7 6 5 4 3 2 2 2 4

GFSNW_850_spd_096.txt.gz
Wind_Speed
7 5 4 2 3 6 9 4 0 8 13 3 4 7 11 17 14 15 7 6 11 13 14 7 3 3 10 10 4 6 1 6 13 9 2 6 5 6 6 4 4 2 2 1
9 6 5 3 2 5 9 3 2 5 7 4 6 11 11 14 13 13 6 7 6 14 7 5 8 5 16 18 8 2 0 8 10 9 9 7 6 7 6 7 2 4 2 4
8 7 4 4 2 3 6 2 1 2 3 2 8 12 9 16 17 8 7 10 8 6 4 10 11 12 15 18 17 20 4 3 2 5 9 10 9 8 5 2 2 2 5 11
9 8 6 5 5 0 3 3 2 2 3 3 9 8 5 15 14 9 11 4 14 11 7 12 13 13 13 19 21 12 6 12 13 14 12 10 9 6 4 4 3 4 6 12
12 8 6 7 8 4 3 2 1 1 7 8 9 4 4 10 14 7 12 14 18 11 9 10 13 14 9 9 7 2 8 4 5 10 8 6 4 2 2 3 3 5 6 6
13 10 8 8 10 5 3 2 1 2 3 5 5 4 8 9 12 6 11 15 15 10 15 23 21 16 13 9 7 8 3 1 2 4 3 2 5 7 3 4 5 6 7 11
14 12 8 8 13 9 7 4 4 2 3 4 6 9 11 11 12 10 14 16 11 14 29 20 7 6 6 3 6 2 3 3 3 2 2 3 6 5 8 5 8 11 11 12
17 13 14 9 14 11 10 11 5 3 4 6 5 8 6 10 8 7 9 15 16 22 16 5 3 2 2 4 13 4 6 2 3 1 2 6 7 9 8 6 6 14 14 15
18 13 12 12 13 10 10 10 11 5 5 1 4 8 7 6 8 8 5 13 13 16 3 3 4 3 3 4 3 7 4 4 1 1 2 2 6 11 11 7 3 14 15 16
13 11 9 15 19 13 10 9 9 7 5 6 4 5 7 5 6 5 8 15 10 14 6 3 4 3 4 2 2 4 3 3 4 3 3 5 11 17 19 4 6 12 14 15
16 13 11 10 20 14 13 11 14 13 5 10 10 9 8 8 7 4 10 5 5 6 5 4 4 3 5 2 5 4 4 3 2 1 1 2 22 8 6 7 13 11 12 11
16 11 15 9 19 15 14 13 11 14 11 7 12 17 21 15 10 8 3 3 4 6 4 5 3 2 3 4 1 6 2 4 4 5 3 6 13 11 8 10 12 13 11 9
14 14 11 12 17 17 16 13 7 10 9 15 10 5 8 8 14 14 4 2 2 2 2 3 2 4 3 2 3 4 3 5 1 3 5 8 12 11 13 12 12 10 10 9
14 13 13 13 17 16 15 16 15 11 3 4 3 6 5 5 6 15 18 10 7 6 3 3 2 3 2 2 4 3 4 7 4 5 8 5 13 13 10 11 10 10 10 10
13 13 14 17 17 17 15 15 18 17 11 3 6 15 8 6 8 7 14 13 8 5 4 3 2 3 3 2 3 1 5 3 3 3 3 6 6 7 8 10 10 9 7 8
15 12 14 16 18 18 14 6 19 21 18 5 3 3 2 3 3 7 12 10 9 5 4 3 5 5 3 3 2 4 5 5 8 3 4 8 7 6 7 9 8 8 7 6
15 15 22 21 19 19 17 4 3 7 25 4 3 3 2 0 6 5 7 9 6 6 4 4 4 4 3 2 2 7 6 6 6 5 8 5 1 3 4 5 6 7 8 8
15 18 18 12 14 23 24 23 3 10 19 4 2 2 3 7 4 5 5 5 5 7 4 2 3 4 3 2 6 6 4 5 4 4 5 6 5 4 4 3 3 5 6 6
17 12 3 17 23 19 23 23 10 15 5 3 3 3 1 8 4 3 5 6 4 2 3 3 3 2 3 3 7 5 3 2 1 3 4 4 3 3 4 3 3 4 5 6
17 8 7 7 13 15 16 12 12 6 4 4 4 4 3 8 7 6 5 4 3 3 4 3 3 3 5 4 6 5 3 4 3 6 2 1 2 2 4 4 5 6 7 7
10 10 3 20 24 17 4 5 5 6 4 6 6 10 4 6 3 3 4 2 2 2 3 3 3 3 5 6 6 5 4 5 6 5 5 3 3 3 3 4 5 6 6 6
10 9 19 26 6 4 4 5 4 5 4 7 6 8 7 4 3 3 4 2 2 3 6 3 3 3 8 7 6 5 4 4 5 4 4 4 5 4 5 6 6 6 7 7
16 6 8 6 4 5 7 8 4 4 6 9 10 6 7 4 5 2 3 4 2 1 3 2 3 9 9 7 6 5 5 5 5 6 6 7 7 8 8 9 9 8 8 8
6 6 6 4 5 6 4 7 4 4 7 15 15 8 4 4 4 1 3 2 2 3 3 1 4 11 9 7 5 5 6 6 7 9 10 10 10 11 11 11 10 8 8 8
4 4 4 5 3 2 4 6 7 5 17 18 9 4 3 2 2 1 1 3 3 3 1 3 10 12 10 8 8 8 10 10 10 10 11 11 11 10 11 10 9 7 6 5
2 3 4 4 6 4 7 8 7 12 17 9 3 3 3 3 2 3 5 2 2 3 3 11 13 11 10 10 11 11 11 11 11 11 11 10 9 8 6 5 4 3 4 5
2 3 3 3 5 6 5 8 9 17 14 2 2 4 2 3 2 3 2 1 2 8 12 11 10 11 12 12 11 10 10 9 9 8 7 6 5 4 4 3 2 2 3 4

GFSNW_850_spd_102.txt.gz
Wind_Speed
16 13 10 9 9 8 3 1 2 1 3 3 4 3 9 13 13 15 11 6 9 6 9 8 6 13 8 33 20 10 10 3 2 12 19 15 7 7 13 4 1 5 3 5
16 13 10 9 11 11 5 2 2 0 3 1 3 7 7 10 13 10 10 7 7 6 4 7 8 15 22 26 16 12 10 3 1 4 3 8 6 11 12 8 5 2 1 3
16 12 9 9 10 9 8 1 1 5 1 5 5 7 6 10 10 7 13 10 11 10 4 12 9 15 8 23 20 24 9 4 6 4 3 10 1 4 2 2 3 5 6 6
12 12 9 9 11 11 6 1 3 1 2 2 4 7 5 9 9 9 10 8 17 15 6 13 11 19 13 14 24 13 6 4 6 8 13 10 7 12 5 10 8 3 9 12
11 11 9 11 12 11 2 4 3 3 8 4 6 1 3 8 10 11 10 13 19 17 14 13 20 22 13 6 11 10 10 4 11 5 19 16 18 8 10 6 14 14 19 14
12 12 8 11 13 10 3 1 2 3 5 3 3 3 6 11 12 7 12 16 16 13 19 26 30 23 12 12 1 6 9 5 6 9 14 9 13 15 16 20 21 19 14 9
14 13 10 12 15 12 4 3 1 1 4 4 3 6 9 10 11 10 14 15 12 20 28 30 21 9 5 7 4 2 6 9 2 3 4 5 7 19 16 21 20 20 17 16
12 11 13 11 15 13 7 6 2 1 4 10 4 5 7 10 11 8 13 12 19 21 23 9 7 1 8 7 4 5 5 5 4 3 4 12 9 16 14 7 14 20 16 13
13 15 14 11 14 14 7 3 3 0 4 3 7 7 11 7 9 8 14 13 19 17 10 5 4 2 4 4 2 9 7 7 3 2 4 0 7 20 24 14 6 17 16 13
14 17 16 12 12 15 8 3 5 1 4 4 8 7 8 10 11 8 13 21 13 14 5 4 5 3 9 6 8 9 8 5 7 5 4 5 15 23 20 4 5 14 16 16
10 19 14 10 10 14 9 3 4 3 4 11 10 7 8 9 11 7 17 9 7 7 7 5 5 4 5 5 13 10 8 6 5 6 6 4 29 8 7 3 9 11 13 13
15 16 13 11 8 16 12 3 1 6 8 10 8 12 14 16 13 12 12 9 7 7 4 5 4 3 4 7 3 10 4 5 3 5 3 4 12 11 9 8 8 11 11 10
16 18 11 12 6 15 16 6 4 5 6 12 12 9 3 5 8 8 9 6 7 5 3 3 2 4 4 5 4 3 4 10 3 5 6 8 9 10 10 9 9 9 9 10
14 21 10 12 9 9 18 9 6 2 3 4 3 0 1 3 4 6 10 12 9 8 7 4 1 3 7 4 5 5 6 6 4 5 9 11 9 8 8 9 9 9 9 10
13 20 12 10 9 8 15 10 12 8 5 4 9 12 10 6 8 6 7 8 8 10 5 2 3 5 5 6 2 5 7 3 2 2 3 4 5 4 7 10 10 10 9 9
15 19 12 11 7 9 6 4 10 12 12 4 3 5 6 4 2 5 6 6 6 7 5 7 6 7 3 3 2 4 6 8 4 4 6 8 6 4 5 7 8 9 10 10
15 14 11 9 11 15 8 2 4 13 12 3 5 2 4 2 3 3 3 3 2 3 6 5 10 11 4 2 2 6 5 8 7 5 6 5 3 4 4 5 5 6 9 10
19 12 10 8 14 15 14 9 2 9 10 3 3 3 5 7 4 3 5 4 3 3 5 6 8 7 4 1 10 8 6 6 5 4 5 6 4 4 5 5 5 4 7 8
19 12 9 9 13 10 10 11 12 9 4 3 4 3 2 5 4 3 6 5 3 7 4 4 2 2 2 4 3 9 6 3 4 3 4 5 5 5 6 7 7 6 7 6
16 12 6 6 9 10 15 6 4 5 4 6 4 7 4 7 7 3 4 4 3 3 6 3 2 3 10 6 7 7 4 3 4 3 3 2 2 3 5 6 5 5 4 3
14 8 5 6 17 16 8 5 5 6 4 7 8 14 8 6 5 4 7 3 3 2 3 2 3 3 4 5 6 6 5 5 6 6 7 6 6 5 5 6 6 5 2 0
14 6 5 25 6 5 5 6 5 5 4 8 8 6 8 2 2 5 2 1 2 2 4 1 2 3 8 8 7 6 6 6 7 7 7 7 8 7 7 5 2 0 2 4
14 5 6 6 7 6 6 8 4 5 4 7 8 3 3 4 3 2 2 2 2 2 1 1 3 11 9 8 8 8 7 7 8 9 8 6 6 6 2 3 4 4 5 5
4 5 5 5 5 5 4 5 5 4 8 11 12 7 3 2 2 0 2 1 2 2 3 3 5 12 11 9 6 4 5 6 4 5 6 7 7 7 6 6 5 4 4 5
4 5 5 6 3 6 7 9 9 6 15 17 10 3 2 2 2 3 2 2 3 2 3 3 13 12 11 9 7 6 7 7 7 6 7 7 6 5 4 3 2 2 2 3
4 5 2 6 6 3 5 11 11 13 19 12 3 3 2 2 2 3 3 3 1 3 4 11 13 11 10 9 7 8 9 8 6 5 5 4 4 3 2 3 4 4 4 6
4 2 3 2 7 8 8 10 11 18 12 2 2 2 2 3 3 3 1 2 3 10 10 9 10 10 10 9 10 9 8 7 5 4 3 2 2 3 6 6 8 10 10 11

GFSNW_850_spd_105.txt.gz
Wind_Speed
19 17 15 13 13 12 8 2 2 5 5 3 3 2 3 7 10 9 5 5 4 2 7 6 4 3 3 26 21 6 5 4 3 2 5 5 7 5 1 2 3 2 2 4
18 15 13 14 15 14 7 3 4 6 5 2 3 5 3 5 8 6 4 3 5 1 3 5 5 4 12 19 17 11 5 2 3 2 2 4 2 6 9 2 3 3 2 3
17 15 13 15 15 13 7 2 2 4 5 5 3 3 3 5 12 6 6 4 7 2 4 5 7 6 7 25 14 17 9 4 4 5 5 2 4 4 3 7 1 2 6 9
14 15 12 14 15 13 4 2 3 3 2 4 1 3 1 4 4 8 11 4 10 9 2 7 4 7 18 13 15 10 4 7 9 7 11 15 9 13 8 7 9 2 10 16
13 11 11 14 14 11 3 4 1 3 3 1 5 3 3 3 5 5 6 7 12 9 5 4 19 18 12 5 10 7 8 4 5 15 14 12 13 18 23 20 13 15 16 12
11 12 10 16 15 11 3 3 2 2 4 2 3 1 3 6 8 5 13 11 7 7 10 24 32 30 23 15 5 2 2 5 6 3 6 10 13 18 21 21 21 14 11 6
12 10 10 16 17 11 11 5 5 3 3 2 2 4 3 6 7 7 11 14 6 14 28 32 22 2 11 15 9 8 3 2 3 1 5 5 8 14 19 23 22 19 13 10
12 11 11 16 17 13 11 8 4 2 1 6 7 4 5 12 17 9 8 19 19 20 19 4 4 3 4 2 10 3 4 2 3 2 3 7 12 13 10 5 13 18 14 8
12 10 14 14 18 13 13 8 6 4 2 4 10 5 12 3 5 7 12 25 17 17 2 3 3 3 4 1 7 10 7 6 3 1 3 5 6 20 20 5 8 16 17 13
13 11 14 12 16 14 9 4 6 6 0 2 10 4 3 6 7 2 7 18 10 18 3 3 3 3 7 5 7 7 5 5 6 6 4 2 14 22 20 3 3 10 14 17
15 13 15 11 13 15 9 4 3 6 2 6 6 2 4 9 8 2 12 8 6 6 6 4 3 3 4 2 4 4 4 4 4 4 4 3 28 8 6 2 9 13 14 13
14 17 15 10 11 16 11 4 2 3 3 5 7 9 10 9 8 9 6 4 6 7 3 3 3 3 4 5 3 7 4 3 2 5 4 5 12 13 13 11 10 10 9 10
15 17 12 11 7 16 13 4 2 1 3 6 2 3 3 1 1 2 2 3 6 5 3 1 2 2 3 3 2 3 4 6 4 2 5 9 11 11 12 12 12 11 11 10
16 16 11 11 7 13 17 7 1 1 2 2 3 2 1 0 3 5 4 7 7 8 10 3 1 1 2 2 2 3 5 5 4 4 9 11 9 9 9 12 11 9 10 12
14 18 10 9 8 6 15 13 6 4 2 3 8 11 6 3 9 3 5 4 4 6 4 1 2 4 4 4 3 3 6 3 1 2 5 6 4 5 11 12 11 9 11 9
14 18 11 9 6 6 11 4 9 7 8 3 3 5 3 4 4 2 5 4 3 3 3 2 4 2 2 1 2 3 6 5 2 5 6 9 8 8 7 6 8 9 7 7
16 19 11 11 6 14 5 3 1 9 8 2 4 4 2 3 2 3 3 4 2 0 2 3 4 7 3 1 2 6 8 8 9 9 11 8 6 7 6 5 6 10 9 8
18 15 10 8 7 14 9 4 6 13 8 2 2 3 3 5 2 2 4 2 2 3 2 3 3 3 2 2 10 9 8 9 8 8 8 10 9 10 8 5 7 9 6 4
18 13 8 7 7 7 7 5 2 0 5 1 3 2 1 7 3 3 4 3 1 3 3 3 1 2 3 4 11 13 7 6 6 5 6 5 5 5 1 1 1 1 2 2
18 11 5 5 6 5 9 3 1 2 3 4 4 6 2 8 7 4 4 3 2 1 4 3 3 2 8 9 10 9 7 3 1 7 6 6 7 4 1 3 3 2 3 3
16 7 5 6 13 11 7 4 4 5 4 7 7 14 3 4 3 2 6 3 2 1 1 3 2 3 4 10 12 10 10 9 7 8 8 7 8 6 5 4 3 2 2 2
13 5 5 14 7 5 4 4 3 4 4 7 8 5 9 3 2 3 3 2 2 2 1 2 1 3 13 12 10 8 8 8 10 6 6 7 8 7 5 2 0 2 4 5
12 4 4 5 6 5 5 7 3 4 4 6 9 2 4 5 2 2 1 1 3 2 1 2 2 13 14 14 11 9 8 6 6 5 4 4 5 4 3 4 6 6 6 6
4 3 4 3 4 4 4 4 5 5 8 17 15 6 3 4 2 1 2 3 1 1 1 2 4 17 16 13 9 7 7 5 3 4 6 8 7 7 7 6 6 5 5 6
2 3 4 5 4 1 2 9 12 11 16 19 10 4 4 1 2 2 1 1 2 3 2 2 15 17 14 10 7 7 8 6 8 9 8 8 7 6 5 6 5 5 5 5
3 4 4 3 5 1 5 13 15 17 20 14 3 2 2 2 2 2 4 1 1 2 3 15 17 14 11 9 7 10 10 7 7 8 6 5 5 6 6 7 8 10 5 7
4 3 6 8 4 5 5 10 11 16 16 2 2 3 4 2 1 2 2 1 2 13 15 14 12 13 12 10 13 13 11 7 6 6 5 4 6 5 4 6 8 10 8 9